| time (UTC) | temp F | wind direction | speed knots | gust knots | rain 1hr in | rain 24hr in | rain mn in | humidity % | barometer mb |
| 20260505171907 | 70 | 98 | 0.9 | 4.3 | 0.00 | 0.00 | 0.00 | 82 | 1005.9 |
| 20260505171807 | 70 | 96 | 0.9 | 4.3 | 0.00 | 0.00 | 0.00 | 82 | 1005.9 |
| 20260505171706 | 70 | 90 | 1.7 | 4.3 | 0.00 | 0.00 | 0.00 | 82 | 1005.9 |
| 20260505171607 | 70 | 92 | 1.7 | 4.3 | 0.00 | 0.00 | 0.00 | 82 | 1005.9 |
| 20260505171507 | 70 | 96 | 2.6 | 4.3 | 0.00 | 0.00 | 0.00 | 81 | 1005.9 |
| 20260505171428 | 70 | 111 | 1.7 | 6.1 | 0.00 | 0.00 | 0.00 | 82 | 1005.9 |
| 20260505171307 | 70 | 118 | 0.9 | 6.1 | 0.00 | 0.00 | 0.00 | 82 | 1005.9 |
| 20260505171207 | 70 | 113 | 0.9 | 6.1 | 0.00 | 0.00 | 0.00 | 82 | 1005.7 |
| 20260505171107 | 70 | 117 | 0.9 | 6.1 | 0.00 | 0.00 | 0.00 | 82 | 1005.8 |
| 20260505171007 | 70 | 123 | 1.7 | 6.1 | 0.00 | 0.00 | 0.00 | 82 | 1005.9 |
| 20260505170906 | 70 | 131 | 0.9 | 6.1 | 0.00 | 0.00 | 0.00 | 82 | 1005.9 |
| 20260505170806 | 69 | 134 | 1.7 | 6.1 | 0.00 | 0.00 | 0.00 | 83 | 1006.0 |
| 20260505170707 | 69 | 141 | 0.9 | 6.1 | 0.00 | 0.00 | 0.00 | 83 | 1005.8 |
| 20260505170607 | 69 | 143 | 0.9 | 6.1 | 0.00 | 0.00 | 0.00 | 83 | 1005.8 |
| 20260505170507 | 69 | 140 | 2.6 | 6.1 | 0.00 | 0.00 | 0.00 | 82 | 1005.9 |
| 20260505170407 | 69 | 129 | 1.7 | 5.2 | 0.00 | 0.00 | 0.00 | 83 | 1005.9 |
| 20260505170307 | 69 | 135 | 1.7 | 5.2 | 0.00 | 0.00 | 0.00 | 83 | 1005.8 |
| 20260505170207 | 69 | 136 | 1.7 | 5.2 | 0.00 | 0.00 | 0.00 | 83 | 1005.9 |
| 20260505170107 | 69 | 134 | 2.6 | 5.2 | 0.00 | 0.00 | 0.00 | 83 | 1005.8 |
| 20260505170007 | 69 | 134 | 1.7 | 4.3 | 0.00 | 0.00 | 0.00 | 83 | 1005.9 |
| 20260505165907 | 69 | 132 | 0.9 | 6.1 | 0.00 | 0.00 | 0.00 | 83 | 1005.9 |
| 20260505165828 | 69 | 126 | 0.9 | 6.1 | 0.00 | 0.00 | 0.00 | 83 | 1005.9 |
| 20260505165728 | 69 | 117 | 2.6 | 6.1 | 0.00 | 0.00 | 0.00 | 83 | 1005.8 |
| 20260505165607 | 69 | 108 | 1.7 | 6.1 | 0.00 | 0.00 | 0.00 | 82 | 1005.9 |
| 20260505165507 | 69 | 109 | 1.7 | 6.1 | 0.00 | 0.00 | 0.00 | 82 | 1005.9 |
| 20260505165407 | 69 | 107 | 1.7 | 6.1 | 0.00 | 0.00 | 0.00 | 83 | 1005.7 |
| 20260505165307 | 69 | 111 | 1.7 | 6.1 | 0.00 | 0.00 | 0.00 | 82 | 1005.8 |
| 20260505165207 | 69 | 109 | 1.7 | 6.1 | 0.00 | 0.00 | 0.00 | 83 | 1006.0 |
| 20260505165107 | 69 | 109 | 2.6 | 6.1 | 0.00 | 0.00 | 0.00 | 83 | 1005.8 |
| 20260505165007 | 69 | 110 | 2.6 | 6.1 | 0.00 | 0.00 | 0.00 | 83 | 1005.9 |
| 20260505164907 | 69 | 109 | 2.6 | 6.1 | 0.00 | 0.00 | 0.00 | 83 | 1005.8 |
| 20260505164806 | 69 | 120 | 1.7 | 5.2 | 0.00 | 0.00 | 0.00 | 83 | 1005.7 |
| 20260505164707 | 69 | 126 | 2.6 | 5.2 | 0.00 | 0.00 | 0.00 | 83 | 1005.8 |
| 20260505164607 | 69 | 129 | 2.6 | 6.1 | 0.00 | 0.00 | 0.00 | 83 | 1005.8 |
| 20260505164506 | 68 | 133 | 1.7 | 6.1 | 0.00 | 0.00 | 0.00 | 84 | 1005.8 |
| 20260505164428 | 68 | 135 | 1.7 | 6.1 | 0.00 | 0.00 | 0.00 | 84 | 1005.8 |
| 20260505164307 | 68 | 137 | 1.7 | 6.1 | 0.00 | 0.00 | 0.00 | 84 | 1005.8 |
| 20260505164207 | 68 | 143 | 1.7 | 6.1 | 0.00 | 0.00 | 0.00 | 84 | 1005.9 |
| 20260505164107 | 68 | 145 | 2.6 | 6.1 | 0.00 | 0.00 | 0.00 | 84 | 1005.9 |
| 20260505164007 | 68 | 145 | 2.6 | 6.1 | 0.00 | 0.00 | 0.00 | 84 | 1005.8 |
| 20260505163907 | 68 | 140 | 1.7 | 6.1 | 0.00 | 0.00 | 0.00 | 83 | 1005.9 |
| 20260505163807 | 68 | 133 | 1.7 | 6.1 | 0.00 | 0.00 | 0.00 | 83 | 1005.8 |
| 20260505163707 | 68 | 132 | 2.6 | 6.1 | 0.00 | 0.00 | 0.00 | 83 | 1005.8 |
| 20260505163607 | 68 | 127 | 2.6 | 6.1 | 0.00 | 0.00 | 0.00 | 84 | 1006.0 |
| 20260505163507 | 68 | 114 | 1.7 | 6.1 | 0.00 | 0.00 | 0.00 | 84 | 1005.8 |
| 20260505163407 | 68 | 110 | 0.9 | 6.1 | 0.00 | 0.00 | 0.00 | 84 | 1005.8 |
| 20260505163307 | 68 | 109 | 0.9 | 6.1 | 0.00 | 0.00 | 0.00 | 84 | 1006.0 |
| 20260505163207 | 68 | 107 | 1.7 | 6.1 | 0.00 | 0.00 | 0.00 | 84 | 1005.9 |
| 20260505163107 | 67 | 103 | 1.7 | 6.1 | 0.00 | 0.00 | 0.00 | 84 | 1005.9 |
| 20260505163009 | 67 | 109 | 2.6 | 6.1 | 0.00 | 0.00 | 0.00 | 84 | 1005.8 |
| 20260505162907 | 67 | 109 | 1.7 | 6.1 | 0.00 | 0.00 | 0.00 | 84 | 1005.8 |
| 20260505162807 | 67 | 116 | 1.7 | 4.3 | 0.00 | 0.00 | 0.00 | 84 | 1005.8 |
| 20260505162707 | 67 | 113 | 1.7 | 4.3 | 0.00 | 0.00 | 0.00 | 85 | 1005.7 |
| 20260505162606 | 67 | 120 | 0.9 | 4.3 | 0.00 | 0.00 | 0.00 | 85 | 1005.7 |
| 20260505162507 | 67 | 128 | 0.9 | 4.3 | 0.00 | 0.00 | 0.00 | 85 | 1005.7 |
| 20260505162407 | 67 | 132 | 1.7 | 6.1 | 0.00 | 0.00 | 0.00 | 85 | 1005.7 |
| 20260505162328 | 67 | 132 | 1.7 | 6.1 | 0.00 | 0.00 | 0.00 | 85 | 1005.7 |
| 20260505162207 | 67 | 129 | 1.7 | 6.1 | 0.00 | 0.00 | 0.00 | 86 | 1005.7 |
| 20260505162107 | 67 | 128 | 1.7 | 6.1 | 0.00 | 0.00 | 0.00 | 86 | 1005.8 |
| 20260505162007 | 67 | 118 | 1.7 | 6.1 | 0.00 | 0.00 | 0.00 | 86 | 1005.7 |
| 20260505161907 | 67 | 116 | 1.7 | 6.1 | 0.00 | 0.00 | 0.00 | 86 | 1005.6 |
| 20260505161807 | 67 | 112 | 1.7 | 6.1 | 0.00 | 0.00 | 0.00 | 86 | 1005.6 |
| 20260505161707 | 67 | 117 | 1.7 | 6.1 | 0.00 | 0.00 | 0.00 | 86 | 1005.8 |
| 20260505161606 | 67 | 121 | 2.6 | 6.1 | 0.00 | 0.00 | 0.00 | 86 | 1005.6 |
| 20260505161507 | 67 | 119 | 2.6 | 6.1 | 0.00 | 0.00 | 0.00 | 86 | 1005.7 |
| 20260505161428 | 66 | 116 | 2.6 | 6.1 | 0.00 | 0.00 | 0.00 | 86 | 1005.8 |
| 20260505161306 | 66 | 117 | 1.7 | 5.2 | 0.00 | 0.00 | 0.00 | 86 | 1005.6 |
| 20260505161228 | 66 | 119 | 1.7 | 5.2 | 0.00 | 0.00 | 0.00 | 86 | 1005.6 |
| 20260505161128 | 66 | 127 | 1.7 | 5.2 | 0.00 | 0.00 | 0.00 | 86 | 1005.7 |
| 20260505161006 | 66 | 136 | 1.7 | 5.2 | 0.00 | 0.00 | 0.00 | 86 | 1005.7 |
| 20260505160907 | 66 | 136 | 1.7 | 5.2 | 0.00 | 0.00 | 0.00 | 86 | 1005.7 |
| 20260505160807 | 66 | 136 | 1.7 | 4.3 | 0.00 | 0.00 | 0.00 | 86 | 1005.7 |
| 20260505160728 | 66 | 130 | 1.7 | 4.3 | 0.00 | 0.00 | 0.00 | 86 | 1005.7 |
| 20260505160607 | 66 | 121 | 1.7 | 4.3 | 0.00 | 0.00 | 0.00 | 86 | 1005.7 |
| 20260505160507 | 66 | 112 | 0.9 | 4.3 | 0.00 | 0.00 | 0.00 | 86 | 1005.5 |
| 20260505160407 | 66 | 107 | 1.7 | 4.3 | 0.00 | 0.00 | 0.00 | 86 | 1005.6 |
| 20260505160307 | 66 | 103 | 1.7 | 4.3 | 0.00 | 0.00 | 0.00 | 86 | 1005.8 |
| 20260505160228 | 66 | 105 | 1.7 | 4.3 | 0.00 | 0.00 | 0.00 | 86 | 1005.6 |
| 20260505160107 | 66 | 100 | 1.7 | 7.0 | 0.00 | 0.00 | 0.00 | 85 | 1005.6 |
| 20260505153307 | 65 | 170 | 0.9 | 4.3 | 0.00 | 0.00 | 0.00 | 88 | 1005.4 |
| 20260505153207 | 65 | 166 | 0.9 | 4.3 | 0.00 | 0.00 | 0.00 | 88 | 1005.4 |
| 20260505153107 | 65 | 160 | 0.9 | 3.5 | 0.00 | 0.00 | 0.00 | 88 | 1005.3 |
| 20260505153028 | 65 | 160 | 1.7 | 3.5 | 0.00 | 0.00 | 0.00 | 88 | 1005.3 |
| 20260505152907 | 65 | 158 | 1.7 | 3.5 | 0.00 | 0.00 | 0.00 | 88 | 1005.3 |
| 20260505152806 | 65 | 157 | 1.7 | 3.5 | 0.00 | 0.00 | 0.00 | 88 | 1005.3 |
| 20260505152728 | 65 | 158 | 1.7 | 3.5 | 0.00 | 0.00 | 0.00 | 88 | 1005.3 |
| 20260505152607 | 64 | 157 | 1.7 | 3.5 | 0.00 | 0.00 | 0.00 | 89 | 1005.3 |
| 20260505152506 | 64 | 157 | 1.7 | 3.5 | 0.00 | 0.00 | 0.00 | 89 | 1005.3 |
| 20260505152407 | 64 | 158 | 1.7 | 3.5 | 0.00 | 0.00 | 0.00 | 89 | 1005.4 |
| 20260505152307 | 64 | 153 | 1.7 | 3.5 | 0.00 | 0.00 | 0.00 | 89 | 1005.3 |
| 20260505152227 | 64 | 150 | 1.7 | 3.5 | 0.00 | 0.00 | 0.00 | 89 | 1005.3 |
| 20260505152107 | 64 | 147 | 1.7 | 3.5 | 0.00 | 0.00 | 0.00 | 89 | 1005.2 |
| 20260505152007 | 64 | 142 | 1.7 | 3.5 | 0.00 | 0.00 | 0.00 | 89 | 1005.2 |
| 20260505151906 | 64 | 144 | 2.6 | 3.5 | 0.00 | 0.00 | 0.00 | 89 | 1005.1 |
| 20260505151828 | 64 | 148 | 0.9 | 5.2 | 0.00 | 0.00 | 0.00 | 89 | 1005.2 |
| 20260505151707 | 64 | 155 | 0.9 | 5.2 | 0.00 | 0.00 | 0.00 | 89 | 1005.3 |
| 20260505151607 | 64 | 156 | 1.7 | 5.2 | 0.00 | 0.00 | 0.00 | 89 | 1005.1 |
| 20260505151506 | 64 | 157 | 1.7 | 5.2 | 0.00 | 0.00 | 0.00 | 89 | 1005.3 |
| 20260505151407 | 64 | 160 | 1.7 | 5.2 | 0.00 | 0.00 | 0.00 | 90 | 1005.2 |
| 20260505151307 | 64 | 162 | 1.7 | 5.2 | 0.00 | 0.00 | 0.00 | 90 | 1005.2 |
| 20260505151207 | 64 | 167 | 1.7 | 5.2 | 0.00 | 0.00 | 0.00 | 90 | 1005.2 |
| 20260505151107 | 64 | 170 | 1.7 | 5.2 | 0.00 | 0.00 | 0.00 | 90 | 1005.1 |
| 20260505151007 | 64 | 171 | 0.9 | 5.2 | 0.00 | 0.00 | 0.00 | 90 | 1005.2 |
| 20260505150906 | 64 | 175 | 2.6 | 5.2 | 0.00 | 0.00 | 0.00 | 90 | 1005.1 |
| 20260505150807 | 64 | 170 | 1.7 | 4.3 | 0.00 | 0.00 | 0.00 | 90 | 1005.1 |
| 20260505150707 | 64 | 165 | 1.7 | 3.5 | 0.00 | 0.00 | 0.00 | 90 | 1005.1 |
| 20260505150607 | 64 | 159 | 1.7 | 3.5 | 0.00 | 0.00 | 0.00 | 90 | 1005.2 |
| 20260505150507 | 64 | 153 | 0.9 | 3.5 | 0.00 | 0.00 | 0.00 | 90 | 1005.1 |
| 20260505150407 | 64 | 147 | 0.9 | 3.5 | 0.00 | 0.00 | 0.00 | 90 | 1005.1 |
| 20260505150307 | 64 | 146 | 1.7 | 3.5 | 0.00 | 0.00 | 0.00 | 90 | 1005.1 |
| 20260505150228 | 63 | 143 | 1.7 | 5.2 | 0.00 | 0.00 | 0.00 | 90 | 1005.1 |
| 20260505150107 | 63 | 139 | 1.7 | 5.2 | 0.00 | 0.00 | 0.00 | 91 | 1005.0 |
| 20260505140628 | 62 | 123 | 0.9 | 3.5 | 0.00 | 0.00 | 0.00 | 98 | 1004.5 |
| 20260505140506 | 62 | 115 | 0.9 | 3.5 | 0.00 | 0.00 | 0.00 | 98 | 1004.5 |
| 20260505140428 | 61 | 112 | 0.9 | 3.5 | 0.00 | 0.00 | 0.00 | 98 | 1004.4 |
| 20260505140328 | 61 | 109 | 0.9 | 3.5 | 0.00 | 0.00 | 0.00 | 98 | 1004.5 |
| 20260505140207 | 61 | 110 | 0.9 | 3.5 | 0.00 | 0.00 | 0.00 | 99 | 1004.5 |
| 20260505140106 | 61 | 112 | 0.9 | 3.5 | 0.00 | 0.00 | 0.00 | 99 | 1004.5 |
| 20260505130306 | 57 | 0 | 0.0 | 3.5 | 0.00 | 0.00 | 0.00 | 100 | 1003.7 |
| 20260505130207 | 57 | 0 | 0.0 | 3.5 | 0.00 | 0.00 | 0.00 | 100 | 1003.7 |
| 20260505130106 | 57 | 0 | 0.0 | 3.5 | 0.00 | 0.00 | 0.00 | 100 | 1003.7 |
| 20260505125007 | 57 | 0 | 0.0 | 3.5 | 0.00 | 0.00 | 0.00 | 100 | 1003.5 |
| 20260505124907 | 57 | 0 | 0.0 | 3.5 | 0.00 | 0.00 | 0.00 | 100 | 1003.7 |
| 20260505124806 | 57 | 178 | 0.9 | 3.5 | 0.00 | 0.00 | 0.00 | 100 | 1003.6 |
| 20260505124706 | 57 | 167 | 0.9 | 3.5 | 0.00 | 0.00 | 0.00 | 100 | 1003.6 |
| 20260505124607 | 57 | 161 | 0.9 | 3.5 | 0.00 | 0.00 | 0.00 | 100 | 1003.5 |
| 20260505124506 | 57 | 155 | 0.9 | 3.5 | 0.00 | 0.00 | 0.00 | 100 | 1003.5 |
| 20260505124407 | 57 | 152 | 0.9 | 3.5 | 0.00 | 0.00 | 0.00 | 100 | 1003.6 |
| 20260505124328 | 57 | 150 | 0.9 | 3.5 | 0.00 | 0.00 | 0.00 | 100 | 1003.5 |
| 20260505124206 | 57 | 147 | 0.9 | 3.5 | 0.00 | 0.00 | 0.00 | 100 | 1003.6 |
| 20260505124106 | 57 | 150 | 0.9 | 3.5 | 0.00 | 0.00 | 0.00 | 100 | 1003.5 |
| 20260505124007 | 57 | 152 | 0.9 | 3.5 | 0.00 | 0.00 | 0.00 | 100 | 1003.5 |
| 20260505123906 | 57 | 147 | 0.9 | 3.5 | 0.00 | 0.00 | 0.00 | 100 | 1003.5 |
| 20260505123806 | 58 | 142 | 1.7 | 3.5 | 0.00 | 0.00 | 0.00 | 100 | 1003.5 |
| 20260505123707 | 58 | 144 | 1.7 | 3.5 | 0.00 | 0.00 | 0.00 | 100 | 1003.4 |
| 20260505123627 | 58 | 145 | 1.7 | 3.5 | 0.00 | 0.00 | 0.00 | 100 | 1003.3 |
| 20260505123506 | 58 | 0 | 0.0 | 4.3 | 0.00 | 0.00 | 0.00 | 100 | 1003.5 |
| 20260505123407 | 58 | 144 | 0.0 | 4.3 | 0.00 | 0.00 | 0.00 | 100 | 1003.5 |
| 20260505123307 | 58 | 146 | 0.0 | 4.3 | 0.00 | 0.00 | 0.00 | 100 | 1003.5 |
| 20260505123227 | 58 | 146 | 0.0 | 4.3 | 0.00 | 0.00 | 0.00 | 100 | 1003.4 |
| 20260505123106 | 58 | 146 | 0.9 | 4.3 | 0.00 | 0.00 | 0.00 | 100 | 1003.2 |
| 20260505123028 | 58 | 143 | 0.9 | 4.3 | 0.00 | 0.00 | 0.00 | 100 | 1003.3 |
| 20260505122927 | 58 | 141 | 1.7 | 4.3 | 0.00 | 0.00 | 0.00 | 100 | 1003.2 |
| 20260505122806 | 58 | 149 | 1.7 | 4.3 | 0.00 | 0.00 | 0.00 | 100 | 1003.3 |
| 20260505122707 | 58 | 149 | 1.7 | 4.3 | 0.00 | 0.00 | 0.00 | 100 | 1003.4 |
| 20260505122606 | 58 | 155 | 1.7 | 4.3 | 0.00 | 0.00 | 0.00 | 100 | 1003.1 |
| 20260505122507 | 58 | 156 | 1.7 | 3.5 | 0.00 | 0.00 | 0.00 | 100 | 1003.2 |
| 20260505122406 | 58 | 160 | 1.7 | 3.5 | 0.00 | 0.00 | 0.00 | 100 | 1003.3 |
| 20260505122306 | 58 | 162 | 0.9 | 3.5 | 0.00 | 0.00 | 0.00 | 100 | 1003.2 |
| 20260505122206 | 58 | 0 | 0.0 | 3.5 | 0.00 | 0.00 | 0.00 | 100 | 1003.2 |
| 20260505122106 | 58 | 0 | 0.0 | 3.5 | 0.00 | 0.00 | 0.00 | 100 | 1003.2 |
| 20260505122007 | 58 | 0 | 0.0 | 3.5 | 0.00 | 0.00 | 0.00 | 100 | 1003.1 |
| 20260505121906 | 58 | 144 | 0.9 | 3.5 | 0.00 | 0.00 | 0.00 | 100 | 1003.1 |
| 20260505121807 | 58 | 143 | 0.9 | 3.5 | 0.00 | 0.00 | 0.00 | 100 | 1003.1 |
| 20260505121707 | 58 | 145 | 0.9 | 3.5 | 0.00 | 0.00 | 0.00 | 100 | 1003.1 |
| 20260505121606 | 58 | 143 | 1.7 | 3.5 | 0.00 | 0.00 | 0.00 | 100 | 1003.0 |
| 20260505121506 | 58 | 145 | 1.7 | 3.5 | 0.00 | 0.00 | 0.00 | 100 | 1003.1 |
| 20260505121407 | 58 | 141 | 0.9 | 3.5 | 0.00 | 0.00 | 0.00 | 100 | 1003.1 |
| 20260505121306 | 58 | 138 | 0.9 | 3.5 | 0.00 | 0.00 | 0.00 | 100 | 1003.0 |
| 20260505121206 | 58 | 142 | 1.7 | 3.5 | 0.00 | 0.00 | 0.00 | 100 | 1003.1 |
| 20260505121107 | 58 | 159 | 0.9 | 2.6 | 0.00 | 0.00 | 0.00 | 100 | 1003.1 |
| 20260505121007 | 58 | 0 | 0.0 | 1.7 | 0.00 | 0.00 | 0.00 | 100 | 1003.0 |
| 20260505120906 | 58 | 0 | 0.0 | 1.7 | 0.00 | 0.00 | 0.00 | 100 | 1003.0 |
| 20260505120828 | 58 | 0 | 0.0 | 1.7 | 0.00 | 0.00 | 0.00 | 100 | 1002.9 |
| 20260505120707 | 58 | 163 | 0.0 | 1.7 | 0.00 | 0.00 | 0.00 | 100 | 1002.9 |
| 20260505120607 | 58 | 164 | 0.9 | 1.7 | 0.00 | 0.00 | 0.00 | 100 | 1003.0 |
| 20260505120507 | 58 | 166 | 0.0 | 1.7 | 0.00 | 0.00 | 0.00 | 100 | 1003.0 |
| 20260505120427 | 58 | 168 | 0.0 | 1.7 | 0.00 | 0.00 | 0.00 | 100 | 1002.8 |
| 20260505120307 | 59 | 171 | 0.0 | 1.7 | 0.00 | 0.00 | 0.00 | 100 | 1002.9 |
| 20260505120227 | 59 | 171 | 0.9 | 1.7 | 0.00 | 0.00 | 0.00 | 100 | 1002.8 |
| 20260505120107 | 59 | 170 | 0.9 | 1.7 | 0.00 | 0.00 | 0.00 | 100 | 1002.9 |
| 20260505120006 | 59 | 170 | 0.0 | 1.7 | 0.00 | 0.00 | 0.00 | 100 | 1002.8 |
| 20260505115907 | 59 | 168 | 0.9 | 1.7 | 0.00 | 0.00 | 0.00 | 100 | 1002.9 |
| 20260505115807 | 59 | 0 | 0.0 | 1.7 | 0.00 | 0.00 | 0.00 | 100 | 1002.9 |
| 20260505115706 | 59 | 0 | 0.0 | 1.7 | 0.00 | 0.00 | 0.00 | 100 | 1002.9 |
| 20260505115606 | 59 | 172 | 0.9 | 1.7 | 0.00 | 0.00 | 0.00 | 100 | 1002.8 |
| 20260505115507 | 59 | 0 | 0.0 | 1.7 | 0.00 | 0.00 | 0.00 | 100 | 1002.8 |
| 20260505115406 | 59 | 0 | 0.0 | 1.7 | 0.00 | 0.00 | 0.00 | 100 | 1002.8 |
| 20260505115307 | 59 | 0 | 0.0 | 1.7 | 0.00 | 0.00 | 0.00 | 100 | 1002.8 |
| 20260505115207 | 59 | 0 | 0.0 | 1.7 | 0.00 | 0.00 | 0.00 | 100 | 1002.8 |
| 20260505115106 | 59 | 151 | 0.9 | 1.7 | 0.00 | 0.00 | 0.00 | 100 | 1002.8 |
| 20260505115006 | 59 | 146 | 0.0 | 1.7 | 0.00 | 0.00 | 0.00 | 100 | 1002.8 |
| 20260505114907 | 59 | 0 | 0.0 | 1.7 | 0.00 | 0.00 | 0.00 | 100 | 1002.8 |
| 20260505114806 | 59 | 0 | 0.0 | 1.7 | 0.00 | 0.00 | 0.00 | 100 | 1002.7 |
| 20260505114706 | 59 | 141 | 0.9 | 1.7 | 0.00 | 0.00 | 0.00 | 100 | 1002.7 |
| 20260505114607 | 59 | 137 | 0.9 | 1.7 | 0.00 | 0.00 | 0.00 | 100 | 1002.7 |
| 20260505114507 | 59 | 134 | 0.9 | 1.7 | 0.00 | 0.00 | 0.00 | 100 | 1002.7 |
| 20260505114427 | 59 | 135 | 0.9 | 1.7 | 0.00 | 0.00 | 0.00 | 100 | 1002.8 |
| 20260505114327 | 59 | 138 | 0.9 | 1.7 | 0.00 | 0.00 | 0.00 | 100 | 1002.7 |
| 20260505114206 | 59 | 140 | 0.9 | 1.7 | 0.00 | 0.00 | 0.00 | 100 | 1002.8 |
| 20260505114106 | 59 | 143 | 0.9 | 1.7 | 0.00 | 0.00 | 0.00 | 100 | 1002.6 |
| 20260505114006 | 59 | 148 | 0.9 | 1.7 | 0.00 | 0.00 | 0.00 | 100 | 1002.7 |
| 20260505113928 | 59 | 153 | 0.9 | 1.7 | 0.00 | 0.00 | 0.00 | 100 | 1002.8 |
| 20260505113806 | 59 | 161 | 0.0 | 1.7 | 0.00 | 0.00 | 0.00 | 100 | 1002.7 |
| 20260505113706 | 59 | 0 | 0.0 | 1.7 | 0.00 | 0.00 | 0.00 | 100 | 1002.7 |
| 20260505113628 | 59 | 0 | 0.0 | 1.7 | 0.00 | 0.00 | 0.00 | 100 | 1002.6 |
| 20260505113506 | 59 | 0 | 0.0 | 1.7 | 0.00 | 0.00 | 0.00 | 100 | 1002.7 |
| 20260505113407 | 59 | 0 | 0.0 | 1.7 | 0.00 | 0.00 | 0.00 | 100 | 1002.6 |
| 20260505113306 | 59 | 0 | 0.0 | 2.6 | 0.00 | 0.00 | 0.00 | 100 | 1002.7 |
| 20260505113207 | 59 | 0 | 0.0 | 2.6 | 0.00 | 0.00 | 0.00 | 100 | 1002.6 |
| 20260505113106 | 59 | 0 | 0.0 | 2.6 | 0.00 | 0.00 | 0.00 | 100 | 1002.7 |
| 20260505113006 | 59 | 0 | 0.0 | 2.6 | 0.00 | 0.00 | 0.00 | 100 | 1002.6 |
| 20260505112928 | 59 | 0 | 0.0 | 2.6 | 0.00 | 0.00 | 0.00 | 100 | 1002.7 |
| 20260505112806 | 59 | 172 | 0.9 | 2.6 | 0.00 | 0.00 | 0.00 | 100 | 1002.7 |
| 20260505112707 | 60 | 172 | 0.9 | 2.6 | 0.00 | 0.00 | 0.00 | 100 | 1002.6 |
| 20260505112607 | 60 | 175 | 0.0 | 2.6 | 0.00 | 0.00 | 0.00 | 100 | 1002.7 |
| 20260505112506 | 60 | 0 | 0.0 | 2.6 | 0.00 | 0.00 | 0.00 | 100 | 1002.6 |
| 20260505112406 | 60 | 0 | 0.0 | 2.6 | 0.00 | 0.00 | 0.00 | 100 | 1002.7 |
| 20260505112306 | 60 | 164 | 0.9 | 2.6 | 0.00 | 0.00 | 0.00 | 100 | 1002.6 |
| 20260505112206 | 60 | 0 | 0.0 | 2.6 | 0.00 | 0.00 | 0.00 | 100 | 1002.6 |
| 20260505112107 | 60 | 158 | 0.9 | 2.6 | 0.00 | 0.00 | 0.00 | 100 | 1002.5 |
| 20260505112007 | 60 | 160 | 0.9 | 2.6 | 0.00 | 0.00 | 0.00 | 100 | 1002.5 |
| 20260505111906 | 60 | 162 | 0.9 | 2.6 | 0.00 | 0.00 | 0.00 | 100 | 1002.5 |
| 20260505111806 | 60 | 0 | 0.0 | 1.7 | 0.00 | 0.00 | 0.00 | 100 | 1002.6 |
| 20260505111706 | 60 | 0 | 0.0 | 3.5 | 0.00 | 0.00 | 0.00 | 100 | 1002.7 |
| 20260505111606 | 60 | 156 | 0.9 | 3.5 | 0.00 | 0.00 | 0.00 | 100 | 1002.5 |
| 20260505111506 | 60 | 154 | 0.0 | 3.5 | 0.00 | 0.00 | 0.00 | 100 | 1002.4 |
| 20260505111406 | 60 | 148 | 0.9 | 3.5 | 0.00 | 0.00 | 0.00 | 100 | 1002.4 |
| 20260505111307 | 60 | 149 | 0.9 | 3.5 | 0.00 | 0.00 | 0.00 | 100 | 1002.5 |
| 20260505111206 | 60 | 146 | 0.9 | 3.5 | 0.00 | 0.00 | 0.00 | 100 | 1002.5 |
| 20260505111106 | 60 | 145 | 0.9 | 3.5 | 0.00 | 0.00 | 0.00 | 100 | 1002.4 |
| 20260505111007 | 60 | 144 | 0.9 | 3.5 | 0.00 | 0.00 | 0.00 | 100 | 1002.4 |
| 20260505110906 | 60 | 144 | 0.9 | 3.5 | 0.00 | 0.00 | 0.00 | 100 | 1002.4 |
| 20260505110827 | 60 | 145 | 0.9 | 3.5 | 0.00 | 0.00 | 0.00 | 100 | 1002.4 |
| 20260505110706 | 60 | 150 | 1.7 | 3.5 | 0.00 | 0.00 | 0.00 | 100 | 1002.5 |
| 20260505110606 | 60 | 149 | 0.9 | 3.5 | 0.00 | 0.00 | 0.00 | 100 | 1002.3 |
| 20260505110506 | 60 | 152 | 0.9 | 3.5 | 0.00 | 0.00 | 0.00 | 100 | 1002.3 |
| 20260505110406 | 60 | 159 | 1.7 | 3.5 | 0.00 | 0.00 | 0.00 | 100 | 1002.3 |
| 20260505110306 | 60 | 165 | 0.9 | 2.6 | 0.00 | 0.00 | 0.00 | 100 | 1002.3 |
| 20260505110206 | 60 | 170 | 0.9 | 2.6 | 0.00 | 0.00 | 0.00 | 100 | 1002.4 |
| 20260505110106 | 60 | 169 | 1.7 | 2.6 | 0.00 | 0.00 | 0.00 | 100 | 1002.3 |
| 20260505102207 | 61 | 0 | 0.0 | 1.7 | 0.00 | 0.00 | 0.00 | 100 | 1001.7 |
| 20260505102106 | 61 | 180 | 0.9 | 1.7 | 0.00 | 0.00 | 0.00 | 100 | 1001.7 |
| 20260505102027 | 61 | 180 | 0.9 | 1.7 | 0.00 | 0.00 | 0.00 | 100 | 1001.7 |
| 20260505101906 | 61 | 180 | 0.9 | 1.7 | 0.00 | 0.00 | 0.00 | 100 | 1001.7 |
| 20260505101806 | 61 | 0 | 0.0 | 1.7 | 0.00 | 0.00 | 0.00 | 100 | 1001.6 |
| 20260505101706 | 61 | 0 | 0.0 | 1.7 | 0.00 | 0.00 | 0.00 | 100 | 1001.5 |
| 20260505101607 | 61 | 180 | 0.9 | 1.7 | 0.00 | 0.00 | 0.00 | 100 | 1001.7 |
| 20260505101506 | 61 | 180 | 0.9 | 1.7 | 0.00 | 0.00 | 0.00 | 100 | 1001.6 |
| 20260505101406 | 61 | 0 | 0.0 | 1.7 | 0.00 | 0.00 | 0.00 | 100 | 1001.5 |
| 20260505101306 | 61 | 0 | 0.0 | 0.0 | 0.00 | 0.00 | 0.00 | 100 | 1001.5 |
| 20260505101206 | 61 | 0 | 0.0 | 0.0 | 0.00 | 0.00 | 0.00 | 99 | 1001.5 |
| 20260505101106 | 61 | 0 | 0.0 | 0.0 | 0.00 | 0.00 | 0.00 | 99 | 1001.5 |
| 20260505101027 | 61 | 0 | 0.0 | 0.0 | 0.00 | 0.00 | 0.00 | 99 | 1001.5 |
| 20260505100907 | 61 | 0 | 0.0 | 0.0 | 0.00 | 0.00 | 0.00 | 99 | 1001.5 |
| 20260505100806 | 61 | 0 | 0.0 | 0.0 | 0.00 | 0.00 | 0.00 | 99 | 1001.4 |
| 20260505100706 | 61 | 0 | 0.0 | 0.0 | 0.00 | 0.00 | 0.00 | 99 | 1001.5 |
| 20260505100606 | 61 | 0 | 0.0 | 0.0 | 0.00 | 0.00 | 0.00 | 99 | 1001.5 |
| 20260505100506 | 61 | 0 | 0.0 | 0.0 | 0.00 | 0.00 | 0.00 | 99 | 1001.3 |
| 20260505100406 | 61 | 0 | 0.0 | 0.0 | 0.00 | 0.00 | 0.00 | 99 | 1001.4 |
| 20260505100307 | 61 | 0 | 0.0 | 0.0 | 0.00 | 0.00 | 0.00 | 98 | 1001.4 |
| 20260505100206 | 61 | 0 | 0.0 | 0.0 | 0.00 | 0.00 | 0.00 | 98 | 1001.4 |
| 20260505100127 | 61 | 0 | 0.0 | 0.0 | 0.00 | 0.00 | 0.00 | 99 | 1001.4 |
| 20260505100007 | 61 | 0 | 0.0 | 0.0 | 0.00 | 0.00 | 0.00 | 98 | 1001.4 |
| 20260505095906 | 62 | 0 | 0.0 | 0.0 | 0.00 | 0.00 | 0.00 | 99 | 1001.3 |
| 20260505095806 | 62 | 0 | 0.0 | 0.0 | 0.00 | 0.00 | 0.00 | 99 | 1001.4 |
| 20260505095706 | 62 | 0 | 0.0 | 0.0 | 0.00 | 0.00 | 0.00 | 99 | 1001.2 |
| 20260505095606 | 62 | 0 | 0.0 | 0.0 | 0.00 | 0.00 | 0.00 | 98 | 1001.4 |
| 20260505095506 | 62 | 0 | 0.0 | 0.0 | 0.00 | 0.00 | 0.00 | 98 | 1001.1 |
| 20260505095428 | 62 | 0 | 0.0 | 0.0 | 0.00 | 0.00 | 0.00 | 98 | 1001.1 |
| 20260505095306 | 62 | 0 | 0.0 | 0.0 | 0.00 | 0.00 | 0.00 | 98 | 1001.3 |
| 20260505095206 | 62 | 0 | 0.0 | 0.0 | 0.00 | 0.00 | 0.00 | 98 | 1001.2 |
| 20260505095107 | 61 | 0 | 0.0 | 0.0 | 0.00 | 0.00 | 0.00 | 98 | 1001.3 |
| 20260505095006 | 62 | 0 | 0.0 | 0.0 | 0.00 | 0.00 | 0.00 | 97 | 1001.2 |
| 20260505094906 | 62 | 0 | 0.0 | 0.0 | 0.00 | 0.00 | 0.00 | 97 | 1001.2 |
| 20260505094806 | 62 | 0 | 0.0 | 0.0 | 0.00 | 0.00 | 0.00 | 97 | 1001.4 |
| 20260505094707 | 62 | 0 | 0.0 | 0.0 | 0.00 | 0.00 | 0.00 | 97 | 1001.2 |
| 20260505094627 | 62 | 0 | 0.0 | 0.0 | 0.00 | 0.00 | 0.00 | 97 | 1001.2 |
| 20260505094507 | 62 | 0 | 0.0 | 0.0 | 0.00 | 0.00 | 0.00 | 97 | 1001.2 |
| 20260505094406 | 62 | 0 | 0.0 | 0.0 | 0.00 | 0.00 | 0.00 | 97 | 1001.2 |
| 20260505094306 | 62 | 0 | 0.0 | 0.0 | 0.00 | 0.00 | 0.00 | 97 | 1001.2 |
| 20260505094206 | 62 | 0 | 0.0 | 0.0 | 0.00 | 0.00 | 0.00 | 97 | 1001.3 |
| 20260505094106 | 62 | 0 | 0.0 | 0.0 | 0.00 | 0.00 | 0.00 | 97 | 1001.3 |
| 20260505094006 | 63 | 0 | 0.0 | 0.0 | 0.00 | 0.00 | 0.00 | 96 | 1001.5 |
| 20260505093906 | 63 | 0 | 0.0 | 0.0 | 0.00 | 0.00 | 0.00 | 96 | 1001.4 |
| 20260505093807 | 63 | 0 | 0.0 | 0.9 | 0.00 | 0.00 | 0.00 | 96 | 1001.3 |
| 20260505093706 | 63 | 0 | 0.0 | 0.9 | 0.00 | 0.00 | 0.00 | 96 | 1001.3 |
| 20260505093606 | 63 | 0 | 0.0 | 0.9 | 0.00 | 0.00 | 0.00 | 96 | 1001.4 |
| 20260505093528 | 63 | 0 | 0.0 | 1.7 | 0.00 | 0.00 | 0.00 | 96 | 1001.4 |
| 20260505093407 | 63 | 0 | 0.0 | 1.7 | 0.00 | 0.00 | 0.00 | 96 | 1001.5 |
| 20260505093306 | 63 | 0 | 0.0 | 1.7 | 0.00 | 0.00 | 0.00 | 96 | 1001.5 |
| 20260505093206 | 63 | 0 | 0.0 | 1.7 | 0.00 | 0.00 | 0.00 | 96 | 1001.4 |
| 20260505093128 | 63 | 0 | 0.0 | 1.7 | 0.00 | 0.00 | 0.00 | 96 | 1001.4 |
| 20260505093006 | 63 | 0 | 0.0 | 1.7 | 0.00 | 0.00 | 0.00 | 96 | 1001.4 |
| 20260505092927 | 63 | 0 | 0.0 | 1.7 | 0.00 | 0.00 | 0.00 | 96 | 1001.5 |
| 20260505092827 | 63 | 0 | 0.0 | 1.7 | 0.00 | 0.00 | 0.00 | 96 | 1001.3 |
| 20260505092706 | 63 | 0 | 0.0 | 1.7 | 0.00 | 0.00 | 0.00 | 96 | 1001.4 |
| 20260505092606 | 63 | 0 | 0.0 | 1.7 | 0.00 | 0.00 | 0.00 | 96 | 1001.3 |
| 20260505092507 | 63 | 0 | 0.0 | 1.7 | 0.00 | 0.00 | 0.00 | 96 | 1001.4 |
| 20260505092406 | 63 | 0 | 0.0 | 1.7 | 0.00 | 0.00 | 0.00 | 96 | 1001.5 |
| 20260505092306 | 63 | 0 | 0.0 | 0.9 | 0.00 | 0.00 | 0.00 | 95 | 1001.4 |
| 20260505092206 | 63 | 0 | 0.0 | 0.9 | 0.00 | 0.00 | 0.00 | 95 | 1001.5 |
| 20260505092127 | 63 | 0 | 0.0 | 0.9 | 0.00 | 0.00 | 0.00 | 95 | 1001.5 |
| 20260505092006 | 63 | 0 | 0.0 | 0.9 | 0.00 | 0.00 | 0.00 | 95 | 1001.4 |
| 20260505091906 | 63 | 0 | 0.0 | 0.0 | 0.00 | 0.00 | 0.00 | 95 | 1001.4 |
| 20260505091806 | 63 | 0 | 0.0 | 0.0 | 0.00 | 0.00 | 0.00 | 95 | 1001.3 |
| 20260505091706 | 64 | 0 | 0.0 | 0.0 | 0.00 | 0.00 | 0.00 | 95 | 1001.3 |
| 20260505091606 | 64 | 0 | 0.0 | 0.0 | 0.00 | 0.00 | 0.00 | 95 | 1001.4 |
| 20260505091507 | 64 | 0 | 0.0 | 0.0 | 0.00 | 0.00 | 0.00 | 95 | 1001.5 |
| 20260505091406 | 64 | 0 | 0.0 | 0.0 | 0.00 | 0.00 | 0.00 | 95 | 1001.3 |
| 20260505091306 | 64 | 0 | 0.0 | 0.0 | 0.00 | 0.00 | 0.00 | 95 | 1001.3 |
| 20260505091206 | 64 | 0 | 0.0 | 0.0 | 0.00 | 0.00 | 0.00 | 95 | 1001.1 |
| 20260505091106 | 64 | 0 | 0.0 | 0.0 | 0.00 | 0.00 | 0.00 | 95 | 1001.3 |
| 20260505091027 | 64 | 0 | 0.0 | 0.0 | 0.00 | 0.00 | 0.00 | 95 | 1001.3 |
| 20260505090906 | 64 | 0 | 0.0 | 0.0 | 0.00 | 0.00 | 0.00 | 95 | 1001.5 |
| 20260505090806 | 64 | 0 | 0.0 | 0.0 | 0.00 | 0.00 | 0.00 | 95 | 1001.4 |
| 20260505090727 | 64 | 0 | 0.0 | 0.0 | 0.00 | 0.00 | 0.00 | 95 | 1001.5 |
| 20260505090606 | 64 | 0 | 0.0 | 0.0 | 0.00 | 0.00 | 0.00 | 95 | 1001.5 |
| 20260505090506 | 64 | 0 | 0.0 | 0.0 | 0.00 | 0.00 | 0.00 | 95 | 1001.3 |
| 20260505090406 | 64 | 0 | 0.0 | 0.0 | 0.00 | 0.00 | 0.00 | 95 | 1001.2 |
| 20260505090306 | 64 | 0 | 0.0 | 0.0 | 0.00 | 0.00 | 0.00 | 95 | 1001.3 |
| 20260505090206 | 64 | 0 | 0.0 | 0.0 | 0.00 | 0.00 | 0.00 | 95 | 1001.4 |
| 20260505090106 | 64 | 0 | 0.0 | 0.0 | 0.00 | 0.00 | 0.00 | 95 | 1001.4 |
| 20260505090006 | 64 | 0 | 0.0 | 0.0 | 0.00 | 0.00 | 0.00 | 95 | 1001.3 |
| 20260505085906 | 64 | 0 | 0.0 | 0.0 | 0.00 | 0.00 | 0.00 | 94 | 1001.3 |
| 20260505085806 | 64 | 0 | 0.0 | 0.0 | 0.00 | 0.00 | 0.00 | 94 | 1001.3 |
| 20260505085706 | 64 | 0 | 0.0 | 0.0 | 0.00 | 0.00 | 0.00 | 94 | 1001.3 |
| 20260505085607 | 64 | 0 | 0.0 | 0.0 | 0.00 | 0.00 | 0.00 | 94 | 1001.4 |
| 20260505085506 | 64 | 0 | 0.0 | 0.0 | 0.00 | 0.00 | 0.00 | 94 | 1001.2 |
| 20260505085406 | 64 | 0 | 0.0 | 0.0 | 0.00 | 0.00 | 0.00 | 94 | 1001.2 |
| 20260505085306 | 64 | 0 | 0.0 | 0.0 | 0.00 | 0.00 | 0.00 | 94 | 1001.2 |
| 20260505085206 | 64 | 0 | 0.0 | 0.0 | 0.00 | 0.00 | 0.00 | 94 | 1001.2 |
| 20260505085106 | 64 | 0 | 0.0 | 0.0 | 0.00 | 0.00 | 0.00 | 94 | 1001.3 |
| 20260505085007 | 64 | 0 | 0.0 | 0.0 | 0.00 | 0.00 | 0.00 | 94 | 1001.2 |
| 20260505084906 | 64 | 0 | 0.0 | 0.0 | 0.00 | 0.00 | 0.00 | 94 | 1001.3 |
| 20260505084806 | 64 | 0 | 0.0 | 0.0 | 0.00 | 0.00 | 0.00 | 94 | 1001.2 |
| 20260505084707 | 64 | 0 | 0.0 | 0.0 | 0.00 | 0.00 | 0.00 | 94 | 1001.3 |
| 20260505084606 | 64 | 0 | 0.0 | 0.0 | 0.00 | 0.00 | 0.00 | 94 | 1001.2 |
| 20260505084527 | 64 | 0 | 0.0 | 0.0 | 0.00 | 0.00 | 0.00 | 94 | 1001.1 |
| 20260505084406 | 64 | 0 | 0.0 | 0.0 | 0.00 | 0.00 | 0.00 | 94 | 1001.2 |
| 20260505084306 | 64 | 0 | 0.0 | 0.0 | 0.00 | 0.00 | 0.00 | 94 | 1001.2 |
| 20260505084206 | 64 | 0 | 0.0 | 0.0 | 0.00 | 0.00 | 0.00 | 94 | 1001.1 |
| 20260505084127 | 64 | 0 | 0.0 | 0.0 | 0.00 | 0.00 | 0.00 | 94 | 1001.2 |
| 20260505084006 | 64 | 0 | 0.0 | 0.0 | 0.00 | 0.00 | 0.00 | 94 | 1001.2 |
| 20260505083927 | 64 | 0 | 0.0 | 0.0 | 0.00 | 0.00 | 0.00 | 94 | 1001.0 |
| 20260505083806 | 64 | 0 | 0.0 | 0.0 | 0.00 | 0.00 | 0.00 | 93 | 1001.2 |
| 20260505083706 | 64 | 0 | 0.0 | 0.0 | 0.00 | 0.00 | 0.00 | 93 | 1001.2 |
| 20260505083606 | 64 | 0 | 0.0 | 0.0 | 0.00 | 0.00 | 0.00 | 93 | 1001.1 |
| 20260505083507 | 64 | 0 | 0.0 | 0.0 | 0.00 | 0.00 | 0.00 | 93 | 1001.0 |
| 20260505083428 | 64 | 0 | 0.0 | 0.0 | 0.00 | 0.00 | 0.00 | 93 | 1001.0 |
| 20260505083306 | 64 | 0 | 0.0 | 0.0 | 0.00 | 0.00 | 0.00 | 93 | 1001.2 |
| 20260505083206 | 64 | 0 | 0.0 | 0.0 | 0.00 | 0.00 | 0.00 | 93 | 1001.2 |
| 20260505083106 | 64 | 0 | 0.0 | 0.0 | 0.00 | 0.00 | 0.00 | 93 | 1001.2 |
| 20260505083028 | 64 | 0 | 0.0 | 0.0 | 0.00 | 0.00 | 0.00 | 93 | 1001.2 |
| 20260505082906 | 64 | 0 | 0.0 | 0.0 | 0.00 | 0.00 | 0.00 | 93 | 1001.0 |
| 20260505082806 | 64 | 0 | 0.0 | 0.0 | 0.00 | 0.00 | 0.00 | 93 | 1001.1 |
| 20260505082727 | 64 | 0 | 0.0 | 0.0 | 0.00 | 0.00 | 0.00 | 93 | 1001.1 |
| 20260505082606 | 64 | 0 | 0.0 | 0.0 | 0.00 | 0.00 | 0.00 | 93 | 1001.1 |
| 20260505082506 | 64 | 0 | 0.0 | 0.0 | 0.00 | 0.00 | 0.00 | 93 | 1001.1 |
| 20260505082428 | 64 | 0 | 0.0 | 0.0 | 0.00 | 0.00 | 0.00 | 93 | 1001.1 |
| 20260505082306 | 64 | 0 | 0.0 | 0.0 | 0.00 | 0.00 | 0.00 | 93 | 1001.1 |
| 20260505082227 | 64 | 0 | 0.0 | 0.0 | 0.00 | 0.00 | 0.00 | 93 | 1001.1 |
| 20260505082128 | 64 | 0 | 0.0 | 0.0 | 0.00 | 0.00 | 0.00 | 93 | 1001.2 |
| 20260505082006 | 64 | 0 | 0.0 | 0.0 | 0.00 | 0.00 | 0.00 | 93 | 1001.0 |
| 20260505081906 | 64 | 0 | 0.0 | 0.0 | 0.00 | 0.00 | 0.00 | 93 | 1001.1 |
| 20260505081807 | 64 | 0 | 0.0 | 0.0 | 0.00 | 0.00 | 0.00 | 93 | 1001.1 |
| 20260505081706 | 64 | 0 | 0.0 | 0.0 | 0.00 | 0.00 | 0.00 | 93 | 1001.1 |
| 20260505081606 | 64 | 0 | 0.0 | 0.0 | 0.00 | 0.00 | 0.00 | 93 | 1001.2 |
| 20260505081506 | 64 | 0 | 0.0 | 0.0 | 0.00 | 0.00 | 0.00 | 93 | 1001.0 |
| 20260505081407 | 64 | 0 | 0.0 | 0.0 | 0.00 | 0.00 | 0.00 | 93 | 1001.1 |
| 20260505081306 | 64 | 0 | 0.0 | 0.0 | 0.00 | 0.00 | 0.00 | 93 | 1001.2 |
| 20260505081206 | 64 | 0 | 0.0 | 0.0 | 0.00 | 0.00 | 0.00 | 93 | 1001.1 |
| 20260505081127 | 64 | 0 | 0.0 | 0.0 | 0.00 | 0.00 | 0.00 | 93 | 1001.2 |
| 20260505081006 | 64 | 0 | 0.0 | 0.0 | 0.00 | 0.00 | 0.00 | 94 | 1001.1 |
| 20260505080906 | 64 | 0 | 0.0 | 0.0 | 0.00 | 0.00 | 0.00 | 94 | 1001.0 |
| 20260505080807 | 64 | 0 | 0.0 | 0.0 | 0.00 | 0.00 | 0.00 | 94 | 1001.2 |
| 20260505080727 | 64 | 0 | 0.0 | 0.0 | 0.00 | 0.00 | 0.00 | 94 | 1001.0 |
| 20260505080606 | 64 | 0 | 0.0 | 0.0 | 0.00 | 0.00 | 0.00 | 93 | 1001.1 |
| 20260505080506 | 64 | 0 | 0.0 | 0.0 | 0.00 | 0.00 | 0.00 | 93 | 1001.1 |
| 20260505080406 | 64 | 0 | 0.0 | 0.9 | 0.00 | 0.00 | 0.00 | 93 | 1001.0 |
| 20260505080306 | 64 | 0 | 0.0 | 1.7 | 0.00 | 0.00 | 0.00 | 93 | 1001.0 |
| 20260505080206 | 64 | 0 | 0.0 | 1.7 | 0.00 | 0.00 | 0.00 | 93 | 1001.0 |
| 20260505080106 | 64 | 0 | 0.0 | 1.7 | 0.00 | 0.00 | 0.00 | 93 | 1001.0 |
| 20260505080006 | 64 | 0 | 0.0 | 1.7 | 0.00 | 0.00 | 0.00 | 93 | 1000.9 |
| 20260505075906 | 64 | 0 | 0.0 | 1.7 | 0.00 | 0.00 | 0.00 | 93 | 1000.9 |
| 20260505075807 | 64 | 0 | 0.0 | 1.7 | 0.00 | 0.00 | 0.00 | 93 | 1000.9 |
| 20260505075706 | 64 | 0 | 0.0 | 1.7 | 0.00 | 0.00 | 0.00 | 94 | 1000.8 |
| 20260505075606 | 64 | 0 | 0.0 | 1.7 | 0.00 | 0.00 | 0.00 | 94 | 1000.8 |
| 20260505075506 | 64 | 0 | 0.0 | 1.7 | 0.00 | 0.00 | 0.00 | 94 | 1000.9 |
| 20260505075406 | 64 | 180 | 0.0 | 1.7 | 0.00 | 0.00 | 0.00 | 94 | 1000.9 |
| 20260505075306 | 64 | 180 | 0.9 | 1.7 | 0.00 | 0.00 | 0.00 | 94 | 1000.8 |
| 20260505075206 | 64 | 180 | 0.0 | 1.7 | 0.00 | 0.00 | 0.00 | 94 | 1000.8 |
| 20260505075106 | 64 | 180 | 0.9 | 1.7 | 0.00 | 0.00 | 0.00 | 94 | 1000.8 |
| 20260505075006 | 64 | 180 | 0.0 | 1.7 | 0.00 | 0.00 | 0.00 | 94 | 1000.8 |
| 20260505074906 | 64 | 0 | 0.0 | 1.7 | 0.00 | 0.00 | 0.00 | 94 | 1000.8 |
| 20260505074806 | 64 | 0 | 0.0 | 1.7 | 0.00 | 0.00 | 0.00 | 94 | 1000.8 |
| 20260505074706 | 64 | 0 | 0.0 | 0.9 | 0.00 | 0.00 | 0.00 | 94 | 1000.8 |
| 20260505074606 | 64 | 0 | 0.0 | 0.9 | 0.00 | 0.00 | 0.00 | 94 | 1000.7 |
| 20260505074506 | 64 | 0 | 0.0 | 0.9 | 0.00 | 0.00 | 0.00 | 94 | 1000.8 |
| 20260505074406 | 64 | 0 | 0.0 | 0.9 | 0.00 | 0.00 | 0.00 | 94 | 1000.7 |
| 20260505074306 | 64 | 0 | 0.0 | 0.9 | 0.00 | 0.00 | 0.00 | 94 | 1000.8 |
| 20260505074207 | 64 | 0 | 0.0 | 0.9 | 0.00 | 0.00 | 0.00 | 94 | 1000.7 |
| 20260505074106 | 64 | 0 | 0.0 | 0.9 | 0.00 | 0.00 | 0.00 | 94 | 1000.8 |
| 20260505074006 | 64 | 0 | 0.0 | 0.9 | 0.00 | 0.00 | 0.00 | 94 | 1000.7 |
| 20260505073907 | 64 | 0 | 0.0 | 0.0 | 0.00 | 0.00 | 0.00 | 93 | 1000.7 |
| 20260505073806 | 64 | 0 | 0.0 | 0.0 | 0.00 | 0.00 | 0.00 | 93 | 1000.6 |
| 20260505073706 | 64 | 0 | 0.0 | 0.0 | 0.00 | 0.00 | 0.00 | 93 | 1000.7 |
| 20260505073606 | 64 | 0 | 0.0 | 0.0 | 0.00 | 0.00 | 0.00 | 93 | 1000.6 |
| 20260505073506 | 64 | 0 | 0.0 | 0.0 | 0.00 | 0.00 | 0.00 | 93 | 1000.7 |
| 20260505073406 | 64 | 0 | 0.0 | 0.0 | 0.00 | 0.00 | 0.00 | 92 | 1000.6 |
| 20260505073306 | 64 | 0 | 0.0 | 0.0 | 0.00 | 0.00 | 0.00 | 92 | 1000.8 |
| 20260505073206 | 64 | 0 | 0.0 | 0.0 | 0.00 | 0.00 | 0.00 | 92 | 1000.7 |
| 20260505073106 | 64 | 0 | 0.0 | 0.0 | 0.00 | 0.00 | 0.00 | 92 | 1000.7 |
| 20260505073006 | 64 | 0 | 0.0 | 0.0 | 0.00 | 0.00 | 0.00 | 92 | 1000.7 |
| 20260505072906 | 64 | 0 | 0.0 | 0.0 | 0.00 | 0.00 | 0.00 | 92 | 1000.6 |
| 20260505072806 | 64 | 0 | 0.0 | 0.0 | 0.00 | 0.00 | 0.00 | 92 | 1000.5 |
| 20260505072706 | 64 | 0 | 0.0 | 0.0 | 0.00 | 0.00 | 0.00 | 92 | 1000.5 |
| 20260505072607 | 64 | 0 | 0.0 | 0.9 | 0.00 | 0.00 | 0.00 | 92 | 1000.5 |
| 20260505072527 | 64 | 0 | 0.0 | 0.9 | 0.00 | 0.00 | 0.00 | 91 | 1000.5 |
| 20260505072406 | 64 | 0 | 0.0 | 0.9 | 0.00 | 0.00 | 0.00 | 91 | 1000.6 |
| 20260505072306 | 64 | 0 | 0.0 | 0.9 | 0.00 | 0.00 | 0.00 | 91 | 1000.4 |
| 20260505072206 | 64 | 0 | 0.0 | 0.9 | 0.00 | 0.00 | 0.00 | 91 | 1000.6 |
| 20260505072106 | 64 | 0 | 0.0 | 0.9 | 0.00 | 0.00 | 0.00 | 91 | 1000.4 |
| 20260505072028 | 64 | 0 | 0.0 | 0.9 | 0.00 | 0.00 | 0.00 | 91 | 1000.3 |
| 20260505071906 | 64 | 0 | 0.0 | 0.9 | 0.00 | 0.00 | 0.00 | 91 | 1000.3 |
| 20260505071806 | 65 | 0 | 0.0 | 0.9 | 0.00 | 0.00 | 0.00 | 91 | 1000.3 |
| 20260505071706 | 65 | 0 | 0.0 | 0.9 | 0.00 | 0.00 | 0.00 | 91 | 1000.2 |
| 20260505071606 | 65 | 0 | 0.0 | 0.9 | 0.00 | 0.00 | 0.00 | 91 | 1000.3 |
| 20260505071506 | 65 | 0 | 0.0 | 0.0 | 0.00 | 0.00 | 0.00 | 91 | 1000.3 |
| 20260505071406 | 65 | 0 | 0.0 | 0.0 | 0.00 | 0.00 | 0.00 | 91 | 1000.2 |
| 20260505071306 | 65 | 0 | 0.0 | 0.0 | 0.00 | 0.00 | 0.00 | 91 | 1000.3 |
| 20260505071206 | 65 | 0 | 0.0 | 1.7 | 0.00 | 0.00 | 0.00 | 90 | 1000.3 |
| 20260505071127 | 65 | 0 | 0.0 | 1.7 | 0.00 | 0.00 | 0.00 | 90 | 1000.3 |
| 20260505071007 | 65 | 0 | 0.0 | 1.7 | 0.00 | 0.00 | 0.00 | 90 | 1000.4 |
| 20260505070906 | 65 | 0 | 0.0 | 1.7 | 0.00 | 0.00 | 0.00 | 90 | 1000.3 |
| 20260505070806 | 65 | 0 | 0.0 | 1.7 | 0.00 | 0.00 | 0.00 | 90 | 1000.4 |
| 20260505070706 | 65 | 0 | 0.0 | 1.7 | 0.00 | 0.00 | 0.00 | 90 | 1000.3 |
| 20260505070627 | 65 | 0 | 0.0 | 1.7 | 0.00 | 0.00 | 0.00 | 90 | 1000.3 |
| 20260505070506 | 65 | 0 | 0.0 | 1.7 | 0.00 | 0.00 | 0.00 | 89 | 1000.4 |
| 20260505070427 | 66 | 0 | 0.0 | 1.7 | 0.00 | 0.00 | 0.00 | 89 | 1000.4 |
| 20260505070327 | 66 | 0 | 0.0 | 1.7 | 0.00 | 0.00 | 0.00 | 89 | 1000.4 |
| 20260505070206 | 66 | 0 | 0.0 | 1.7 | 0.00 | 0.00 | 0.00 | 89 | 1000.3 |
| 20260505070106 | 66 | 225 | 0.0 | 1.7 | 0.00 | 0.00 | 0.00 | 89 | 1000.4 |
| 20260505070007 | 66 | 215 | 0.0 | 1.7 | 0.00 | 0.00 | 0.00 | 89 | 1000.3 |
| 20260505065906 | 66 | 212 | 0.9 | 1.7 | 0.00 | 0.00 | 0.00 | 89 | 1000.4 |
| 20260505065806 | 66 | 212 | 0.9 | 1.7 | 0.00 | 0.00 | 0.00 | 89 | 1000.3 |
| 20260505065727 | 66 | 0 | 0.0 | 1.7 | 0.00 | 0.00 | 0.00 | 89 | 1000.3 |
| 20260505065606 | 66 | 0 | 0.0 | 1.7 | 0.00 | 0.00 | 0.00 | 88 | 1000.3 |
| 20260505065506 | 67 | 0 | 0.0 | 1.7 | 0.00 | 0.00 | 0.00 | 88 | 1000.3 |
| 20260505065406 | 66 | 0 | 0.0 | 1.7 | 0.00 | 0.00 | 0.00 | 88 | 1000.5 |
| 20260505065306 | 67 | 0 | 0.0 | 2.6 | 0.00 | 0.00 | 0.00 | 88 | 1000.4 |
| 20260505065206 | 67 | 0 | 0.0 | 2.6 | 0.00 | 0.00 | 0.00 | 88 | 1000.3 |
| 20260505065106 | 67 | 0 | 0.0 | 2.6 | 0.00 | 0.00 | 0.00 | 88 | 1000.3 |
| 20260505065006 | 67 | 214 | 0.0 | 2.6 | 0.00 | 0.00 | 0.00 | 88 | 1000.3 |
| 20260505064927 | 67 | 217 | 0.9 | 2.6 | 0.00 | 0.00 | 0.00 | 88 | 1000.2 |
| 20260505064806 | 67 | 215 | 0.9 | 2.6 | 0.00 | 0.00 | 0.00 | 88 | 1000.2 |
| 20260505064706 | 67 | 213 | 0.0 | 2.6 | 0.00 | 0.00 | 0.00 | 88 | 1000.2 |
| 20260505064606 | 67 | 216 | 0.9 | 2.6 | 0.00 | 0.00 | 0.00 | 88 | 1000.0 |
| 20260505064506 | 67 | 217 | 0.9 | 2.6 | 0.00 | 0.00 | 0.00 | 88 | 1000.1 |
| 20260505064406 | 67 | 216 | 0.9 | 2.6 | 0.00 | 0.00 | 0.00 | 88 | 1000.3 |
| 20260505064327 | 67 | 214 | 0.9 | 2.6 | 0.00 | 0.00 | 0.00 | 88 | 1000.4 |
| 20260505064206 | 67 | 210 | 0.9 | 1.7 | 0.00 | 0.00 | 0.00 | 88 | 1000.2 |
| 20260505064106 | 67 | 209 | 0.9 | 1.7 | 0.00 | 0.00 | 0.00 | 88 | 1000.3 |
| 20260505064006 | 67 | 215 | 0.0 | 1.7 | 0.00 | 0.00 | 0.00 | 88 | 1000.2 |
| 20260505063906 | 67 | 0 | 0.0 | 0.9 | 0.00 | 0.00 | 0.00 | 87 | 1000.1 |
| 20260505063828 | 67 | 0 | 0.0 | 0.9 | 0.00 | 0.00 | 0.00 | 87 | 1000.1 |
| 20260505063706 | 67 | 0 | 0.0 | 0.9 | 0.00 | 0.00 | 0.00 | 87 | 1000.1 |
| 20260505063627 | 67 | 0 | 0.0 | 0.9 | 0.00 | 0.00 | 0.00 | 87 | 1000.1 |
| 20260505063506 | 67 | 0 | 0.0 | 0.9 | 0.00 | 0.00 | 0.00 | 87 | 1000.1 |
| 20260505063427 | 67 | 0 | 0.0 | 0.9 | 0.00 | 0.00 | 0.00 | 87 | 1000.1 |
| 20260505063306 | 67 | 0 | 0.0 | 0.9 | 0.00 | 0.00 | 0.00 | 87 | 1000.0 |
| 20260505063206 | 67 | 0 | 0.0 | 0.9 | 0.00 | 0.00 | 0.00 | 88 | 1000.1 |
| 20260505063106 | 67 | 0 | 0.0 | 0.9 | 0.00 | 0.00 | 0.00 | 88 | 1000.0 |
| 20260505063006 | 67 | 0 | 0.0 | 0.9 | 0.00 | 0.00 | 0.00 | 88 | 1000.2 |
| 20260505062906 | 67 | 0 | 0.0 | 0.9 | 0.00 | 0.00 | 0.00 | 87 | 1000.1 |
| 20260505062806 | 67 | 0 | 0.0 | 0.9 | 0.00 | 0.00 | 0.00 | 87 | 1000.0 |
| 20260505062706 | 67 | 0 | 0.0 | 0.9 | 0.00 | 0.00 | 0.00 | 87 | 999.9 |
| 20260505062606 | 67 | 0 | 0.0 | 0.9 | 0.00 | 0.00 | 0.00 | 87 | 1000.1 |
| 20260505062506 | 67 | 0 | 0.0 | 0.0 | 0.00 | 0.00 | 0.00 | 87 | 1000.1 |
| 20260505062406 | 67 | 0 | 0.0 | 0.0 | 0.00 | 0.00 | 0.00 | 87 | 1000.0 |
| 20260505062306 | 67 | 0 | 0.0 | 0.0 | 0.00 | 0.00 | 0.00 | 87 | 1000.1 |
| 20260505062207 | 67 | 0 | 0.0 | 0.0 | 0.00 | 0.00 | 0.00 | 86 | 999.9 |
| 20260505062127 | 67 | 0 | 0.0 | 0.0 | 0.00 | 0.00 | 0.00 | 86 | 1000.1 |
| 20260505062006 | 67 | 0 | 0.0 | 0.0 | 0.00 | 0.00 | 0.00 | 86 | 999.9 |
| 20260505061906 | 67 | 0 | 0.0 | 0.0 | 0.00 | 0.00 | 0.00 | 86 | 1000.0 |
| 20260505061806 | 67 | 0 | 0.0 | 0.0 | 0.00 | 0.00 | 0.00 | 86 | 1000.0 |
| 20260505061706 | 67 | 0 | 0.0 | 0.0 | 0.00 | 0.00 | 0.00 | 85 | 1000.0 |
| 20260505061606 | 67 | 0 | 0.0 | 0.0 | 0.00 | 0.00 | 0.00 | 85 | 1000.0 |
| 20260505061506 | 67 | 0 | 0.0 | 0.0 | 0.00 | 0.00 | 0.00 | 85 | 1000.0 |
| 20260505061406 | 67 | 0 | 0.0 | 0.0 | 0.00 | 0.00 | 0.00 | 85 | 999.9 |
| 20260505061306 | 67 | 0 | 0.0 | 0.0 | 0.00 | 0.00 | 0.00 | 85 | 1000.0 |
| 20260505061206 | 68 | 0 | 0.0 | 0.0 | 0.00 | 0.00 | 0.00 | 84 | 1000.0 |
| 20260505061127 | 68 | 0 | 0.0 | 0.0 | 0.00 | 0.00 | 0.00 | 84 | 999.9 |
| 20260505061006 | 68 | 0 | 0.0 | 0.9 | 0.00 | 0.00 | 0.00 | 84 | 999.8 |
| 20260505060906 | 68 | 0 | 0.0 | 0.9 | 0.00 | 0.00 | 0.00 | 84 | 999.9 |
| 20260505060806 | 68 | 0 | 0.0 | 1.7 | 0.00 | 0.00 | 0.00 | 83 | 999.8 |
| 20260505060706 | 68 | 0 | 0.0 | 1.7 | 0.00 | 0.00 | 0.00 | 83 | 999.9 |
| 20260505060606 | 68 | 0 | 0.0 | 1.7 | 0.00 | 0.00 | 0.00 | 83 | 999.8 |
| 20260505060506 | 68 | 0 | 0.0 | 1.7 | 0.00 | 0.00 | 0.00 | 83 | 999.8 |
| 20260505060406 | 68 | 0 | 0.0 | 1.7 | 0.00 | 0.00 | 0.00 | 83 | 999.8 |
| 20260505060306 | 68 | 0 | 0.0 | 2.6 | 0.00 | 0.00 | 0.00 | 83 | 999.8 |
| 20260505060206 | 68 | 0 | 0.0 | 2.6 | 0.00 | 0.00 | 0.00 | 83 | 999.8 |
| 20260505060127 | 68 | 0 | 0.0 | 2.6 | 0.00 | 0.00 | 0.00 | 83 | 999.8 |
| 20260505060027 | 68 | 0 | 0.0 | 2.6 | 0.00 | 0.00 | 0.00 | 82 | 999.9 |
| 20260505055927 | 68 | 0 | 0.0 | 2.6 | 0.00 | 0.00 | 0.00 | 82 | 999.9 |
| 20260505055806 | 69 | 0 | 0.0 | 2.6 | 0.00 | 0.00 | 0.00 | 82 | 999.9 |
| 20260505055706 | 69 | 0 | 0.0 | 2.6 | 0.00 | 0.00 | 0.00 | 82 | 1000.0 |
| 20260505055627 | 69 | 0 | 0.0 | 2.6 | 0.00 | 0.00 | 0.00 | 82 | 999.8 |
| 20260505055506 | 69 | 98 | 0.0 | 2.6 | 0.00 | 0.00 | 0.00 | 82 | 999.8 |
| 20260505055427 | 69 | 93 | 0.9 | 2.6 | 0.00 | 0.00 | 0.00 | 82 | 999.8 |
| 20260505055306 | 69 | 90 | 1.7 | 2.6 | 0.00 | 0.00 | 0.00 | 82 | 999.8 |
| 20260505055206 | 69 | 90 | 1.7 | 2.6 | 0.00 | 0.00 | 0.00 | 82 | 999.9 |
| 20260505055106 | 69 | 0 | 0.0 | 0.0 | 0.00 | 0.00 | 0.00 | 79 | 999.9 |
| 20260505055006 | 69 | 0 | 0.0 | 1.7 | 0.00 | 0.00 | 0.00 | 79 | 999.9 |
| 20260505054906 | 69 | 0 | 0.0 | 1.7 | 0.00 | 0.00 | 0.00 | 78 | 999.9 |
| 20260505054806 | 69 | 0 | 0.0 | 1.7 | 0.00 | 0.00 | 0.00 | 78 | 999.8 |
| 20260505054706 | 69 | 0 | 0.0 | 1.7 | 0.00 | 0.00 | 0.00 | 78 | 999.8 |
| 20260505054606 | 69 | 0 | 0.0 | 1.7 | 0.00 | 0.00 | 0.00 | 78 | 999.8 |
| 20260505054506 | 69 | 0 | 0.0 | 1.7 | 0.00 | 0.00 | 0.00 | 77 | 999.8 |
| 20260505054406 | 69 | 0 | 0.0 | 1.7 | 0.00 | 0.00 | 0.00 | 77 | 999.8 |
| 20260505054306 | 70 | 0 | 0.0 | 2.6 | 0.00 | 0.00 | 0.00 | 77 | 999.8 |
| 20260505054206 | 70 | 0 | 0.0 | 3.5 | 0.00 | 0.00 | 0.00 | 78 | 999.8 |
| 20260505054127 | 70 | 0 | 0.0 | 3.5 | 0.00 | 0.00 | 0.00 | 77 | 999.7 |
| 20260505054006 | 70 | 200 | 0.9 | 3.5 | 0.00 | 0.00 | 0.00 | 77 | 999.7 |
| 20260505053906 | 70 | 198 | 0.9 | 3.5 | 0.00 | 0.00 | 0.00 | 77 | 999.6 |
| 20260505053806 | 71 | 0 | 0.0 | 3.5 | 0.00 | 0.00 | 0.00 | 75 | 999.8 |
| 20260505053727 | 71 | 0 | 0.0 | 3.5 | 0.00 | 0.00 | 0.00 | 75 | 999.7 |
| 20260505053606 | 71 | 0 | 0.0 | 3.5 | 0.00 | 0.00 | 0.00 | 75 | 999.7 |
| 20260505053506 | 71 | 0 | 0.0 | 3.5 | 0.00 | 0.00 | 0.00 | 75 | 999.7 |
| 20260505053406 | 71 | 205 | 0.9 | 3.5 | 0.00 | 0.00 | 0.00 | 75 | 999.8 |
| 20260505053306 | 71 | 212 | 1.7 | 3.5 | 0.00 | 0.00 | 0.00 | 76 | 999.6 |
| 20260505053206 | 71 | 219 | 0.9 | 3.5 | 0.00 | 0.00 | 0.00 | 75 | 999.5 |
| 20260505053128 | 71 | 215 | 0.0 | 1.7 | 0.00 | 0.00 | 0.00 | 73 | 999.6 |
| 20260505053006 | 71 | 0 | 0.0 | 0.9 | 0.00 | 0.00 | 0.00 | 71 | 999.6 |
| 20260505052906 | 71 | 0 | 0.0 | 0.9 | 0.00 | 0.00 | 0.00 | 71 | 999.5 |
| 20260505052828 | 71 | 0 | 0.0 | 0.0 | 0.00 | 0.00 | 0.00 | 70 | 999.5 |
| 20260505052727 | 71 | 0 | 0.0 | 0.0 | 0.00 | 0.00 | 0.00 | 70 | 999.5 |
| 20260505052606 | 71 | 0 | 0.0 | 0.0 | 0.00 | 0.00 | 0.00 | 69 | 999.3 |
| 20260505052506 | 71 | 0 | 0.0 | 0.0 | 0.00 | 0.00 | 0.00 | 69 | 999.5 |
| 20260505052406 | 72 | 0 | 0.0 | 0.0 | 0.00 | 0.00 | 0.00 | 68 | 999.5 |
| 20260505052306 | 72 | 0 | 0.0 | 0.0 | 0.00 | 0.00 | 0.00 | 68 | 999.5 |
| 20260505052206 | 72 | 0 | 0.0 | 0.0 | 0.00 | 0.00 | 0.00 | 68 | 999.4 |
| 20260505052106 | 72 | 0 | 0.0 | 0.0 | 0.00 | 0.00 | 0.00 | 68 | 999.5 |
| 20260505052006 | 72 | 0 | 0.0 | 0.0 | 0.00 | 0.00 | 0.00 | 68 | 999.5 |
| 20260505051906 | 72 | 0 | 0.0 | 1.7 | 0.00 | 0.00 | 0.00 | 67 | 999.5 |
| 20260505051806 | 72 | 0 | 0.0 | 1.7 | 0.00 | 0.00 | 0.00 | 67 | 999.4 |
| 20260505051706 | 72 | 0 | 0.0 | 1.7 | 0.00 | 0.00 | 0.00 | 67 | 999.4 |
| 20260505051627 | 72 | 0 | 0.0 | 1.7 | 0.00 | 0.00 | 0.00 | 67 | 999.4 |
| 20260505051506 | 73 | 0 | 0.0 | 1.7 | 0.00 | 0.00 | 0.00 | 66 | 999.5 |
| 20260505051427 | 73 | 0 | 0.0 | 1.7 | 0.00 | 0.00 | 0.00 | 66 | 999.5 |
| 20260505051327 | 73 | 0 | 0.0 | 1.7 | 0.00 | 0.00 | 0.00 | 66 | 999.4 |
| 20260505051206 | 73 | 0 | 0.0 | 1.7 | 0.00 | 0.00 | 0.00 | 66 | 999.4 |
| 20260505051106 | 73 | 0 | 0.0 | 1.7 | 0.00 | 0.00 | 0.00 | 66 | 999.3 |
| 20260505051006 | 73 | 202 | 0.0 | 1.7 | 0.00 | 0.00 | 0.00 | 66 | 999.3 |
| 20260505050906 | 73 | 207 | 0.0 | 1.7 | 0.00 | 0.00 | 0.00 | 66 | 999.4 |
| 20260505050806 | 73 | 0 | 0.0 | 1.7 | 0.00 | 0.00 | 0.00 | 65 | 999.4 |
| 20260505050706 | 73 | 0 | 0.0 | 0.0 | 0.00 | 0.00 | 0.00 | 65 | 999.3 |
| 20260505050606 | 73 | 0 | 0.0 | 0.0 | 0.00 | 0.00 | 0.00 | 65 | 999.5 |
| 20260505050506 | 74 | 0 | 0.0 | 0.0 | 0.00 | 0.00 | 0.00 | 64 | 999.4 |
| 20260505050406 | 74 | 0 | 0.0 | 0.0 | 0.00 | 0.00 | 0.00 | 64 | 999.4 |
| 20260505050306 | 74 | 0 | 0.0 | 0.0 | 0.00 | 0.00 | 0.00 | 64 | 999.3 |
| 20260505050227 | 74 | 0 | 0.0 | 0.0 | 0.00 | 0.00 | 0.00 | 64 | 999.3 |
| 20260505050106 | 74 | 0 | 0.0 | 0.0 | 0.00 | 0.00 | 0.00 | 64 | 999.3 |
| 20260505041706 | 77 | 0 | 0.0 | 3.5 | 0.00 | 0.00 | 0.00 | 60 | 999.0 |
| 20260505041606 | 77 | 215 | 0.0 | 3.5 | 0.00 | 0.00 | 0.00 | 61 | 999.2 |
| 20260505041506 | 77 | 216 | 0.9 | 3.5 | 0.00 | 0.00 | 0.00 | 61 | 999.3 |
| 20260505041406 | 77 | 220 | 0.0 | 3.5 | 0.00 | 0.00 | 0.00 | 61 | 999.3 |
| 20260505041306 | 77 | 0 | 0.0 | 3.5 | 0.00 | 0.00 | 0.00 | 60 | 999.1 |
| 20260505041206 | 77 | 0 | 0.0 | 3.5 | 0.00 | 0.00 | 0.00 | 60 | 999.0 |
| 20260505041106 | 77 | 0 | 0.0 | 3.5 | 0.00 | 0.00 | 0.00 | 60 | 999.1 |
| 20260505041006 | 77 | 0 | 0.0 | 3.5 | 0.00 | 0.00 | 0.00 | 61 | 999.1 |
| 20260505040906 | 77 | 212 | 0.9 | 3.5 | 0.00 | 0.00 | 0.00 | 61 | 999.2 |
| 20260505040806 | 77 | 225 | 1.7 | 3.5 | 0.00 | 0.00 | 0.00 | 62 | 999.2 |
| 20260505040706 | 77 | 225 | 1.7 | 3.5 | 0.00 | 0.00 | 0.00 | 62 | 999.0 |
| 20260505040606 | 78 | 0 | 0.0 | 0.0 | 0.00 | 0.00 | 0.00 | 59 | 999.0 |
| 20260505040506 | 78 | 0 | 0.0 | 0.0 | 0.00 | 0.00 | 0.00 | 59 | 999.0 |
| 20260505040406 | 78 | 0 | 0.0 | 0.0 | 0.00 | 0.00 | 0.00 | 59 | 998.9 |
| 20260505040306 | 78 | 0 | 0.0 | 0.0 | 0.00 | 0.00 | 0.00 | 59 | 998.9 |
| 20260505040206 | 78 | 0 | 0.0 | 0.0 | 0.00 | 0.00 | 0.00 | 59 | 998.9 |
| 20260505040106 | 78 | 0 | 0.0 | 0.0 | 0.00 | 0.00 | 0.00 | 59 | 998.9 |
| 20260505040006 | 78 | 0 | 0.0 | 0.0 | 0.00 | 0.00 | 0.00 | 59 | 998.9 |
| 20260505035906 | 78 | 0 | 0.0 | 0.0 | 0.00 | 0.00 | 0.00 | 59 | 998.9 |
| 20260505035827 | 78 | 0 | 0.0 | 0.0 | 0.00 | 0.00 | 0.00 | 59 | 999.0 |
| 20260505035706 | 78 | 0 | 0.0 | 0.0 | 0.00 | 0.00 | 0.00 | 58 | 998.8 |
| 20260505035606 | 78 | 0 | 0.0 | 0.0 | 0.00 | 0.00 | 0.00 | 58 | 998.9 |
| 20260505035506 | 78 | 0 | 0.0 | 0.0 | 0.00 | 0.00 | 0.00 | 57 | 998.8 |
| 20260505035406 | 79 | 0 | 0.0 | 0.0 | 0.00 | 0.00 | 0.00 | 57 | 998.9 |
| 20260505035306 | 79 | 0 | 0.0 | 0.0 | 0.00 | 0.00 | 0.00 | 57 | 998.8 |
| 20260505035206 | 79 | 0 | 0.0 | 0.0 | 0.00 | 0.00 | 0.00 | 56 | 998.6 |
| 20260505035127 | 79 | 0 | 0.0 | 0.0 | 0.00 | 0.00 | 0.00 | 56 | 998.6 |
| 20260505035006 | 79 | 0 | 0.0 | 0.0 | 0.00 | 0.00 | 0.00 | 56 | 998.6 |
| 20260505034906 | 79 | 0 | 0.0 | 0.0 | 0.00 | 0.00 | 0.00 | 56 | 998.6 |
| 20260505034806 | 79 | 0 | 0.0 | 0.0 | 0.00 | 0.00 | 0.00 | 55 | 998.7 |
| 20260505034706 | 79 | 0 | 0.0 | 0.0 | 0.00 | 0.00 | 0.00 | 55 | 998.6 |
| 20260505034606 | 79 | 0 | 0.0 | 0.0 | 0.00 | 0.00 | 0.00 | 55 | 998.9 |
| 20260505034506 | 79 | 0 | 0.0 | 0.0 | 0.00 | 0.00 | 0.00 | 55 | 998.6 |
| 20260505034406 | 79 | 0 | 0.0 | 0.0 | 0.00 | 0.00 | 0.00 | 55 | 998.6 |
| 20260505034306 | 79 | 0 | 0.0 | 0.0 | 0.00 | 0.00 | 0.00 | 54 | 998.6 |
| 20260505034227 | 80 | 0 | 0.0 | 0.0 | 0.00 | 0.00 | 0.00 | 55 | 998.6 |
| 20260505034106 | 80 | 0 | 0.0 | 0.0 | 0.00 | 0.00 | 0.00 | 55 | 998.6 |
| 20260505034006 | 80 | 0 | 0.0 | 0.0 | 0.00 | 0.00 | 0.00 | 55 | 998.7 |
| 20260505033906 | 80 | 0 | 0.0 | 0.0 | 0.00 | 0.00 | 0.00 | 54 | 998.7 |
| 20260505033806 | 80 | 0 | 0.0 | 0.0 | 0.00 | 0.00 | 0.00 | 53 | 998.5 |
| 20260505033706 | 80 | 0 | 0.0 | 0.0 | 0.00 | 0.00 | 0.00 | 53 | 998.6 |
| 20260505033606 | 80 | 0 | 0.0 | 0.0 | 0.00 | 0.00 | 0.00 | 52 | 998.7 |
| 20260505033506 | 80 | 0 | 0.0 | 0.0 | 0.00 | 0.00 | 0.00 | 51 | 998.5 |
| 20260505033406 | 80 | 0 | 0.0 | 0.0 | 0.00 | 0.00 | 0.00 | 50 | 998.6 |
| 20260505033327 | 80 | 0 | 0.0 | 0.0 | 0.00 | 0.00 | 0.00 | 50 | 998.6 |
| 20260505033206 | 81 | 0 | 0.0 | 0.0 | 0.00 | 0.00 | 0.00 | 50 | 998.6 |
| 20260505033106 | 80 | 0 | 0.0 | 0.0 | 0.00 | 0.00 | 0.00 | 50 | 998.5 |
| 20260505033006 | 81 | 0 | 0.0 | 0.0 | 0.00 | 0.00 | 0.00 | 50 | 998.6 |
| 20260505032906 | 81 | 0 | 0.0 | 0.0 | 0.00 | 0.00 | 0.00 | 50 | 998.6 |
| 20260505032806 | 81 | 0 | 0.0 | 0.0 | 0.00 | 0.00 | 0.00 | 50 | 998.5 |
| 20260505032706 | 81 | 0 | 0.0 | 0.0 | 0.00 | 0.00 | 0.00 | 50 | 998.5 |
| 20260505032606 | 81 | 0 | 0.0 | 0.0 | 0.00 | 0.00 | 0.00 | 50 | 998.5 |
| 20260505032506 | 81 | 0 | 0.0 | 0.0 | 0.00 | 0.00 | 0.00 | 50 | 998.4 |
| 20260505032406 | 81 | 0 | 0.0 | 0.0 | 0.00 | 0.00 | 0.00 | 50 | 998.4 |
| 20260505032306 | 81 | 0 | 0.0 | 0.0 | 0.00 | 0.00 | 0.00 | 50 | 998.6 |
| 20260505032206 | 81 | 0 | 0.0 | 0.0 | 0.00 | 0.00 | 0.00 | 50 | 998.5 |
| 20260505032106 | 81 | 0 | 0.0 | 0.0 | 0.00 | 0.00 | 0.00 | 50 | 998.5 |
| 20260505032027 | 82 | 0 | 0.0 | 0.0 | 0.00 | 0.00 | 0.00 | 50 | 998.6 |
| 20260505031906 | 82 | 0 | 0.0 | 0.0 | 0.00 | 0.00 | 0.00 | 50 | 998.4 |
| 20260505031806 | 82 | 0 | 0.0 | 0.0 | 0.00 | 0.00 | 0.00 | 50 | 998.4 |
| 20260505031706 | 82 | 0 | 0.0 | 0.0 | 0.00 | 0.00 | 0.00 | 50 | 998.3 |
| 20260505031606 | 82 | 0 | 0.0 | 0.0 | 0.00 | 0.00 | 0.00 | 50 | 998.4 |
| 20260505031506 | 82 | 0 | 0.0 | 0.0 | 0.00 | 0.00 | 0.00 | 50 | 998.3 |
| 20260505031406 | 82 | 0 | 0.0 | 0.0 | 0.00 | 0.00 | 0.00 | 50 | 998.4 |
| 20260505031306 | 82 | 0 | 0.0 | 0.0 | 0.00 | 0.00 | 0.00 | 50 | 998.4 |
| 20260505031206 | 82 | 0 | 0.0 | 0.0 | 0.00 | 0.00 | 0.00 | 50 | 998.4 |
| 20260505031106 | 83 | 0 | 0.0 | 0.0 | 0.00 | 0.00 | 0.00 | 50 | 998.4 |
| 20260505031006 | 83 | 0 | 0.0 | 0.0 | 0.00 | 0.00 | 0.00 | 50 | 998.3 |
| 20260505030906 | 83 | 0 | 0.0 | 0.0 | 0.00 | 0.00 | 0.00 | 50 | 998.3 |
| 20260505030806 | 83 | 0 | 0.0 | 0.0 | 0.00 | 0.00 | 0.00 | 50 | 998.4 |
| 20260505030727 | 83 | 0 | 0.0 | 0.0 | 0.00 | 0.00 | 0.00 | 50 | 998.4 |
| 20260505030606 | 83 | 0 | 0.0 | 0.0 | 0.00 | 0.00 | 0.00 | 50 | 998.4 |
| 20260505030506 | 83 | 0 | 0.0 | 0.0 | 0.00 | 0.00 | 0.00 | 50 | 998.3 |
| 20260505030406 | 84 | 0 | 0.0 | 0.0 | 0.00 | 0.00 | 0.00 | 50 | 998.4 |
| 20260505030306 | 84 | 0 | 0.0 | 0.0 | 0.00 | 0.00 | 0.00 | 50 | 998.4 |
| 20260505030206 | 84 | 0 | 0.0 | 0.0 | 0.00 | 0.00 | 0.00 | 50 | 998.4 |
| 20260505030106 | 84 | 0 | 0.0 | 0.0 | 0.00 | 0.00 | 0.00 | 50 | 998.3 |
| 20260505030006 | 84 | 0 | 0.0 | 0.0 | 0.00 | 0.00 | 0.00 | 50 | 998.5 |
| 20260505025906 | 84 | 0 | 0.0 | 0.0 | 0.00 | 0.00 | 0.00 | 50 | 998.3 |
| 20260505025827 | 85 | 0 | 0.0 | 0.0 | 0.00 | 0.00 | 0.00 | 50 | 998.3 |
| 20260505025706 | 85 | 0 | 0.0 | 0.0 | 0.00 | 0.00 | 0.00 | 50 | 998.4 |
| 20260505025606 | 85 | 0 | 0.0 | 0.0 | 0.00 | 0.00 | 0.00 | 50 | 998.2 |
| 20260505025506 | 85 | 0 | 0.0 | 0.0 | 0.00 | 0.00 | 0.00 | 50 | 998.3 |
| 20260505025406 | 85 | 0 | 0.0 | 0.0 | 0.00 | 0.00 | 0.00 | 50 | 998.3 |
| 20260505025306 | 85 | 0 | 0.0 | 0.0 | 0.00 | 0.00 | 0.00 | 50 | 998.2 |
| 20260505025206 | 86 | 0 | 0.0 | 0.9 | 0.00 | 0.00 | 0.00 | 50 | 998.3 |
| 20260505025106 | 86 | 0 | 0.0 | 0.9 | 0.00 | 0.00 | 0.00 | 50 | 998.4 |
| 20260505025027 | 86 | 0 | 0.0 | 0.9 | 0.00 | 0.00 | 0.00 | 50 | 998.2 |
| 20260505024927 | 86 | 0 | 0.0 | 0.9 | 0.00 | 0.00 | 0.00 | 50 | 998.3 |
| 20260505024806 | 87 | 0 | 0.0 | 0.9 | 0.00 | 0.00 | 0.00 | 50 | 998.3 |
| 20260505024706 | 87 | 0 | 0.0 | 0.9 | 0.00 | 0.00 | 0.00 | 50 | 998.3 |
| 20260505024606 | 87 | 0 | 0.0 | 0.9 | 0.00 | 0.00 | 0.00 | 50 | 998.2 |
| 20260505024506 | 87 | 0 | 0.0 | 0.9 | 0.00 | 0.00 | 0.00 | 50 | 998.4 |
| 20260505024406 | 87 | 0 | 0.0 | 0.9 | 0.00 | 0.00 | 0.00 | 50 | 998.2 |
| 20260505024327 | 87 | 0 | 0.0 | 0.9 | 0.00 | 0.00 | 0.00 | 50 | 998.2 |
| 20260505024206 | 88 | 0 | 0.0 | 0.9 | 0.00 | 0.00 | 0.00 | 50 | 998.3 |
| 20260505024106 | 88 | 0 | 0.0 | 2.6 | 0.00 | 0.00 | 0.00 | 50 | 998.3 |
| 20260505024006 | 89 | 0 | 0.0 | 2.6 | 0.00 | 0.00 | 0.00 | 50 | 998.1 |
| 20260505023906 | 89 | 0 | 0.0 | 2.6 | 0.00 | 0.00 | 0.00 | 50 | 998.2 |
| 20260505023827 | 89 | 0 | 0.0 | 2.6 | 0.00 | 0.00 | 0.00 | 50 | 998.3 |
| 20260505023706 | 89 | 0 | 0.0 | 2.6 | 0.00 | 0.00 | 0.00 | 50 | 998.2 |
| 20260505023627 | 89 | 0 | 0.0 | 2.6 | 0.00 | 0.00 | 0.00 | 50 | 998.2 |
| 20260505023506 | 90 | 0 | 0.0 | 2.6 | 0.00 | 0.00 | 0.00 | 50 | 998.1 |
| 20260505023427 | 90 | 0 | 0.0 | 2.6 | 0.00 | 0.00 | 0.00 | 50 | 998.2 |
| 20260505023306 | 91 | 0 | 0.0 | 2.6 | 0.00 | 0.00 | 0.00 | 50 | 998.2 |
| 20260505023206 | 91 | 0 | 0.0 | 2.6 | 0.00 | 0.00 | 0.00 | 50 | 998.3 |
| 20260505023106 | 91 | 0 | 0.0 | 2.6 | 0.00 | 0.00 | 0.00 | 50 | 998.3 |
| 20260505023006 | 92 | 0 | 0.0 | 1.7 | 0.00 | 0.00 | 0.00 | 50 | 998.1 |
| 20260505022927 | 92 | 0 | 0.0 | 1.7 | 0.00 | 0.00 | 0.00 | 50 | 998.2 |
| 20260505022806 | 92 | 0 | 0.0 | 1.7 | 0.00 | 0.00 | 0.00 | 50 | 998.2 |
| 20260505022706 | 92 | 0 | 0.0 | 1.7 | 0.00 | 0.00 | 0.00 | 50 | 998.2 |
| 20260505022606 | 92 | 0 | 0.0 | 1.7 | 0.00 | 0.00 | 0.00 | 50 | 998.2 |
| 20260505022506 | 92 | 0 | 0.0 | 1.7 | 0.00 | 0.00 | 0.00 | 50 | 998.1 |
| 20260505022406 | 92 | 0 | 0.0 | 1.7 | 0.00 | 0.00 | 0.00 | 50 | 998.3 |
| 20260505022306 | 92 | 0 | 0.0 | 2.6 | 0.00 | 0.00 | 0.00 | 50 | 998.2 |
| 20260505022206 | 92 | 0 | 0.0 | 2.6 | 0.00 | 0.00 | 0.00 | 50 | 998.1 |
| 20260505022106 | 92 | 0 | 0.0 | 2.6 | 0.00 | 0.00 | 0.00 | 50 | 998.2 |
| 20260505022006 | 92 | 152 | 0.9 | 2.6 | 0.00 | 0.00 | 0.00 | 50 | 998.3 |
| 20260505021905 | 92 | 0 | 0.0 | 2.6 | 0.00 | 0.00 | 0.00 | 50 | 998.2 |
| 20260505021827 | 93 | 0 | 0.0 | 2.6 | 0.00 | 0.00 | 0.00 | 50 | 998.2 |
| 20260505021706 | 93 | 0 | 0.0 | 3.5 | 0.00 | 0.00 | 0.00 | 50 | 998.3 |
| 20260505021606 | 93 | 0 | 0.0 | 3.5 | 0.00 | 0.00 | 0.00 | 50 | 998.2 |
| 20260505021506 | 93 | 0 | 0.0 | 3.5 | 0.00 | 0.00 | 0.00 | 50 | 998.3 |
| 20260505021406 | 93 | 152 | 0.0 | 3.5 | 0.00 | 0.00 | 0.00 | 50 | 998.2 |
| 20260505021306 | 93 | 146 | 0.0 | 3.5 | 0.00 | 0.00 | 0.00 | 50 | 998.4 |
| 20260505021206 | 93 | 144 | 0.0 | 3.5 | 0.00 | 0.00 | 0.00 | 50 | 998.3 |
| 20260505021106 | 93 | 140 | 0.9 | 3.5 | 0.00 | 0.00 | 0.00 | 50 | 998.3 |
| 20260505021006 | 93 | 0 | 0.0 | 3.5 | 0.00 | 0.00 | 0.00 | 50 | 998.2 |
| 20260505020906 | 93 | 0 | 0.0 | 3.5 | 0.00 | 0.00 | 0.00 | 50 | 998.3 |
| 20260505020806 | 93 | 134 | 0.9 | 3.5 | 0.00 | 0.00 | 0.00 | 50 | 998.3 |
| 20260505020727 | 93 | 132 | 0.9 | 3.5 | 0.00 | 0.00 | 0.00 | 50 | 998.3 |
| 20260505020606 | 93 | 128 | 0.9 | 3.5 | 0.00 | 0.00 | 0.00 | 50 | 998.3 |
| 20260505020527 | 93 | 127 | 0.9 | 3.5 | 0.00 | 0.00 | 0.00 | 50 | 998.3 |
| 20260505020406 | 93 | 133 | 0.9 | 3.5 | 0.00 | 0.00 | 0.00 | 50 | 998.5 |
| 20260505020306 | 93 | 0 | 0.0 | 3.5 | 0.00 | 0.00 | 0.00 | 50 | 998.3 |
| 20260505020206 | 93 | 137 | 0.9 | 3.5 | 0.00 | 0.00 | 0.00 | 50 | 998.5 |
| 20260505020106 | 93 | 147 | 0.9 | 5.2 | 0.00 | 0.00 | 0.00 | 50 | 998.4 |
| 20260505020027 | 93 | 154 | 0.9 | 5.2 | 0.00 | 0.00 | 0.00 | 50 | 998.5 |
| 20260505015906 | 93 | 163 | 0.9 | 5.2 | 0.00 | 0.00 | 0.00 | 50 | 998.5 |
| 20260505015806 | 93 | 169 | 0.9 | 5.2 | 0.00 | 0.00 | 0.00 | 50 | 998.4 |
| 20260505015706 | 93 | 175 | 1.7 | 5.2 | 0.00 | 0.00 | 0.00 | 50 | 998.5 |
| 20260505015627 | 93 | 179 | 0.9 | 5.2 | 0.00 | 0.00 | 0.00 | 50 | 998.5 |
| 20260505015506 | 93 | 175 | 1.7 | 5.2 | 0.00 | 0.00 | 0.00 | 50 | 998.5 |
| 20260505015406 | 93 | 174 | 0.9 | 5.2 | 0.00 | 0.00 | 0.00 | 50 | 998.4 |
| 20260505015306 | 93 | 177 | 0.9 | 5.2 | 0.00 | 0.00 | 0.00 | 50 | 998.5 |
| 20260505015206 | 93 | 173 | 0.9 | 5.2 | 0.00 | 0.00 | 0.00 | 50 | 998.5 |
| 20260505015106 | 94 | 168 | 2.6 | 5.2 | 0.00 | 0.00 | 0.00 | 50 | 998.5 |
| 20260505015027 | 94 | 164 | 1.7 | 4.3 | 0.00 | 0.00 | 0.00 | 50 | 998.5 |
| 20260505014906 | 94 | 161 | 1.7 | 4.3 | 0.00 | 0.00 | 0.00 | 50 | 998.5 |
| 20260505014806 | 94 | 143 | 1.7 | 3.5 | 0.00 | 0.00 | 0.00 | 50 | 998.4 |
| 20260505014705 | 94 | 133 | 1.7 | 3.5 | 0.00 | 0.00 | 0.00 | 50 | 998.5 |
| 20260505014606 | 94 | 132 | 1.7 | 3.5 | 0.00 | 0.00 | 0.00 | 50 | 998.5 |
| 20260505014506 | 94 | 135 | 1.7 | 3.5 | 0.00 | 0.00 | 0.00 | 50 | 998.5 |
| 20260505014406 | 95 | 133 | 0.9 | 3.5 | 0.00 | 0.00 | 0.00 | 50 | 998.5 |
| 20260505014307 | 95 | 132 | 1.7 | 3.5 | 0.00 | 0.00 | 0.00 | 50 | 998.4 |
| 20260505014206 | 95 | 133 | 0.9 | 3.5 | 0.00 | 0.00 | 0.00 | 50 | 998.5 |
| 20260505014106 | 95 | 0 | 0.0 | 3.5 | 0.00 | 0.00 | 0.00 | 50 | 998.6 |
| 20260505014006 | 95 | 139 | 0.0 | 3.5 | 0.00 | 0.00 | 0.00 | 50 | 998.4 |
| 20260505013906 | 95 | 137 | 0.9 | 4.3 | 0.00 | 0.00 | 0.00 | 50 | 998.5 |
| 20260505013806 | 95 | 134 | 0.9 | 4.3 | 0.00 | 0.00 | 0.00 | 50 | 998.7 |
| 20260505013706 | 95 | 132 | 0.0 | 4.3 | 0.00 | 0.00 | 0.00 | 50 | 998.5 |
| 20260505013606 | 95 | 128 | 0.9 | 4.3 | 0.00 | 0.00 | 0.00 | 50 | 998.6 |
| 20260505013506 | 95 | 129 | 0.9 | 4.3 | 0.00 | 0.00 | 0.00 | 50 | 998.7 |
| 20260505013406 | 95 | 130 | 0.9 | 4.3 | 0.00 | 0.00 | 0.00 | 50 | 998.6 |
| 20260505013306 | 95 | 122 | 0.9 | 4.3 | 0.00 | 0.00 | 0.00 | 50 | 998.6 |
| 20260505013206 | 95 | 121 | 1.7 | 4.3 | 0.00 | 0.00 | 0.00 | 50 | 998.7 |
| 20260505013127 | 95 | 122 | 1.7 | 4.3 | 0.00 | 0.00 | 0.00 | 50 | 998.7 |
| 20260505013006 | 95 | 124 | 1.7 | 4.3 | 0.00 | 0.00 | 0.00 | 50 | 998.6 |
| 20260505012906 | 95 | 126 | 0.9 | 4.3 | 0.00 | 0.00 | 0.00 | 50 | 998.7 |
| 20260505012806 | 95 | 140 | 1.7 | 3.5 | 0.00 | 0.00 | 0.00 | 50 | 998.6 |
| 20260505012706 | 96 | 145 | 0.9 | 3.5 | 0.00 | 0.00 | 0.00 | 50 | 998.7 |
| 20260505012606 | 96 | 147 | 0.9 | 3.5 | 0.00 | 0.00 | 0.00 | 50 | 998.7 |
| 20260505012506 | 96 | 149 | 1.7 | 3.5 | 0.00 | 0.00 | 0.00 | 50 | 998.7 |
| 20260505012406 | 96 | 151 | 1.7 | 3.5 | 0.00 | 0.00 | 0.00 | 50 | 998.7 |
| 20260505012306 | 96 | 156 | 0.9 | 3.5 | 0.00 | 0.00 | 0.00 | 50 | 998.8 |
| 20260505012227 | 96 | 161 | 0.0 | 3.5 | 0.00 | 0.00 | 0.00 | 50 | 998.8 |
| 20260505012106 | 96 | 154 | 0.9 | 3.5 | 0.00 | 0.00 | 0.00 | 50 | 998.7 |
| 20260505012006 | 96 | 146 | 0.9 | 3.5 | 0.00 | 0.00 | 0.00 | 50 | 998.7 |
| 20260505011906 | 96 | 139 | 0.9 | 3.5 | 0.00 | 0.00 | 0.00 | 50 | 998.7 |
| 20260505011805 | 96 | 0 | 0.0 | 2.6 | 0.00 | 0.00 | 0.00 | 50 | 998.7 |
| 20260505011706 | 96 | 0 | 0.0 | 2.6 | 0.00 | 0.00 | 0.00 | 50 | 998.8 |
| 20260505011627 | 96 | 0 | 0.0 | 2.6 | 0.00 | 0.00 | 0.00 | 50 | 998.8 |
| 20260505011505 | 96 | 138 | 0.9 | 2.6 | 0.00 | 0.00 | 0.00 | 50 | 998.7 |
| 20260505011406 | 96 | 138 | 0.9 | 2.6 | 0.00 | 0.00 | 0.00 | 50 | 998.8 |
| 20260505011306 | 96 | 143 | 0.9 | 2.6 | 0.00 | 0.00 | 0.00 | 50 | 998.7 |
| 20260505011206 | 96 | 151 | 0.9 | 2.6 | 0.00 | 0.00 | 0.00 | 50 | 998.8 |
| 20260505011106 | 97 | 155 | 0.9 | 2.6 | 0.00 | 0.00 | 0.00 | 50 | 998.8 |
| 20260505011006 | 97 | 165 | 0.0 | 2.6 | 0.00 | 0.00 | 0.00 | 50 | 998.8 |
| 20260505010906 | 97 | 176 | 0.0 | 2.6 | 0.00 | 0.00 | 0.00 | 50 | 998.8 |
| 20260505010806 | 97 | 0 | 0.0 | 2.6 | 0.00 | 0.00 | 0.00 | 50 | 998.9 |
| 20260505010706 | 97 | 184 | 0.0 | 2.6 | 0.00 | 0.00 | 0.00 | 50 | 998.8 |
| 20260505010627 | 96 | 188 | 0.9 | 2.6 | 0.00 | 0.00 | 0.00 | 50 | 998.8 |
| 20260505010505 | 96 | 194 | 0.0 | 2.6 | 0.00 | 0.00 | 0.00 | 50 | 998.8 |
| 20260505010406 | 97 | 0 | 0.0 | 3.5 | 0.00 | 0.00 | 0.00 | 50 | 998.9 |
| 20260505010327 | 97 | 0 | 0.0 | 3.5 | 0.00 | 0.00 | 0.00 | 50 | 998.9 |
| 20260505010205 | 97 | 0 | 0.0 | 3.5 | 0.00 | 0.00 | 0.00 | 50 | 998.7 |
| 20260505010106 | 97 | 0 | 0.0 | 4.3 | 0.00 | 0.00 | 0.00 | 50 | 998.8 |
| 20260505010006 | 97 | 169 | 0.9 | 4.3 | 0.00 | 0.00 | 0.00 | 50 | 998.9 |
| 20260505005906 | 97 | 166 | 0.9 | 4.3 | 0.00 | 0.00 | 0.00 | 50 | 998.8 |
| 20260505005806 | 98 | 0 | 0.0 | 4.3 | 0.00 | 0.00 | 0.00 | 50 | 998.8 |
| 20260505005706 | 97 | 0 | 0.0 | 4.3 | 0.00 | 0.00 | 0.00 | 50 | 998.9 |
| 20260505005606 | 97 | 0 | 0.0 | 4.3 | 0.00 | 0.00 | 0.00 | 50 | 998.9 |
| 20260505005506 | 97 | 161 | 0.0 | 4.3 | 0.00 | 0.00 | 0.00 | 50 | 998.8 |
| 20260505005427 | 97 | 154 | 0.9 | 4.3 | 0.00 | 0.00 | 0.00 | 50 | 998.8 |
| 20260505005306 | 98 | 149 | 0.9 | 4.3 | 0.00 | 0.00 | 0.00 | 50 | 998.8 |
| 20260505005206 | 98 | 139 | 0.9 | 4.3 | 0.00 | 0.00 | 0.00 | 50 | 998.9 |
| 20260505005106 | 98 | 138 | 0.0 | 3.5 | 0.00 | 0.00 | 0.00 | 50 | 998.9 |
| 20260505005006 | 98 | 135 | 0.9 | 3.5 | 0.00 | 0.00 | 0.00 | 50 | 999.0 |
| 20260505004905 | 98 | 0 | 0.0 | 3.5 | 0.00 | 0.00 | 0.00 | 50 | 999.0 |
| 20260505004806 | 97 | 0 | 0.0 | 3.5 | 0.00 | 0.00 | 0.00 | 50 | 998.9 |
| 20260505004706 | 97 | 0 | 0.0 | 3.5 | 0.00 | 0.00 | 0.00 | 50 | 999.0 |
| 20260505004606 | 97 | 126 | 0.0 | 3.5 | 0.00 | 0.00 | 0.00 | 50 | 998.9 |
| 20260505004506 | 97 | 131 | 0.9 | 3.5 | 0.00 | 0.00 | 0.00 | 50 | 998.9 |
| 20260505004406 | 97 | 138 | 0.0 | 3.5 | 0.00 | 0.00 | 0.00 | 50 | 999.0 |
| 20260505004305 | 97 | 143 | 0.0 | 3.5 | 0.00 | 0.00 | 0.00 | 50 | 999.0 |
| 20260505004206 | 97 | 142 | 0.0 | 3.5 | 0.00 | 0.00 | 0.00 | 50 | 998.9 |
| 20260505004106 | 97 | 0 | 0.0 | 3.5 | 0.00 | 0.00 | 0.00 | 50 | 999.0 |
| 20260505004006 | 97 | 160 | 0.9 | 3.5 | 0.00 | 0.00 | 0.00 | 50 | 998.9 |
| 20260505003906 | 97 | 0 | 0.0 | 3.5 | 0.00 | 0.00 | 0.00 | 50 | 999.0 |
| 20260505003806 | 96 | 0 | 0.0 | 3.5 | 0.00 | 0.00 | 0.00 | 50 | 998.9 |
| 20260505003706 | 96 | 166 | 0.9 | 3.5 | 0.00 | 0.00 | 0.00 | 50 | 999.0 |
| 20260505003606 | 96 | 167 | 1.7 | 3.5 | 0.00 | 0.00 | 0.00 | 50 | 998.9 |
| 20260505003506 | 97 | 167 | 0.9 | 3.5 | 0.00 | 0.00 | 0.00 | 50 | 998.9 |
| 20260505003406 | 97 | 167 | 0.9 | 3.5 | 0.00 | 0.00 | 0.00 | 50 | 999.0 |
| 20260505003306 | 97 | 171 | 0.9 | 3.5 | 0.00 | 0.00 | 0.00 | 50 | 999.0 |
| 20260505003206 | 97 | 181 | 0.9 | 3.5 | 0.00 | 0.00 | 0.00 | 50 | 999.0 |
| 20260505003106 | 97 | 180 | 0.9 | 3.5 | 0.00 | 0.00 | 0.00 | 50 | 999.1 |
| 20260505003006 | 97 | 175 | 0.9 | 3.5 | 0.00 | 0.00 | 0.00 | 50 | 999.0 |
| 20260505002906 | 97 | 175 | 0.9 | 3.5 | 0.00 | 0.00 | 0.00 | 50 | 999.0 |
| 20260505002827 | 97 | 175 | 1.7 | 3.5 | 0.00 | 0.00 | 0.00 | 50 | 999.0 |
| 20260505002705 | 97 | 174 | 0.9 | 3.5 | 0.00 | 0.00 | 0.00 | 50 | 999.1 |
| 20260505002606 | 97 | 171 | 0.0 | 3.5 | 0.00 | 0.00 | 0.00 | 50 | 999.1 |
| 20260505002506 | 97 | 173 | 0.9 | 3.5 | 0.00 | 0.00 | 0.00 | 50 | 999.0 |
| 20260505002406 | 97 | 176 | 0.0 | 3.5 | 0.00 | 0.00 | 0.00 | 50 | 999.0 |
| 20260505002305 | 98 | 176 | 0.9 | 3.5 | 0.00 | 0.00 | 0.00 | 50 | 999.0 |
| 20260505002206 | 98 | 170 | 0.0 | 3.5 | 0.00 | 0.00 | 0.00 | 50 | 999.0 |
| 20260505002106 | 98 | 158 | 0.9 | 3.5 | 0.00 | 0.00 | 0.00 | 50 | 999.2 |
| 20260505002006 | 98 | 156 | 0.0 | 3.5 | 0.00 | 0.00 | 0.00 | 50 | 999.0 |
| 20260505001906 | 98 | 153 | 0.9 | 2.6 | 0.00 | 0.00 | 0.00 | 50 | 999.1 |
| 20260505001827 | 99 | 155 | 0.9 | 2.6 | 0.00 | 0.00 | 0.00 | 50 | 999.2 |
| 20260505001705 | 99 | 152 | 0.0 | 3.5 | 0.00 | 0.00 | 0.00 | 50 | 999.2 |
| 20260505001606 | 98 | 0 | 0.0 | 3.5 | 0.00 | 0.00 | 0.00 | 50 | 999.0 |
| 20260505001506 | 98 | 0 | 0.0 | 3.5 | 0.00 | 0.00 | 0.00 | 50 | 999.0 |
| 20260505001406 | 98 | 0 | 0.0 | 4.3 | 0.00 | 0.00 | 0.00 | 50 | 999.2 |
| 20260505001306 | 98 | 0 | 0.0 | 5.2 | 0.00 | 0.00 | 0.00 | 50 | 999.1 |
| 20260505001206 | 98 | 164 | 0.9 | 5.2 | 0.00 | 0.00 | 0.00 | 50 | 999.0 |
| 20260505001126 | 97 | 168 | 0.9 | 5.2 | 0.00 | 0.00 | 0.00 | 50 | 999.1 |
| 20260505001006 | 97 | 0 | 0.0 | 5.2 | 0.00 | 0.00 | 0.00 | 50 | 999.1 |
| 20260505000906 | 97 | 175 | 0.9 | 5.2 | 0.00 | 0.00 | 0.00 | 50 | 999.2 |
| 20260505000806 | 97 | 172 | 1.7 | 5.2 | 0.00 | 0.00 | 0.00 | 50 | 999.2 |
| 20260505000706 | 97 | 177 | 0.0 | 5.2 | 0.00 | 0.00 | 0.00 | 50 | 999.1 |
| 20260505000606 | 97 | 173 | 0.0 | 5.2 | 0.00 | 0.00 | 0.00 | 50 | 999.1 |
| 20260505000506 | 97 | 165 | 1.7 | 5.2 | 0.00 | 0.00 | 0.00 | 50 | 999.1 |
| 20260505000406 | 97 | 162 | 1.7 | 5.2 | 0.00 | 0.00 | 0.00 | 50 | 999.1 |
| 20260505000306 | 96 | 165 | 0.9 | 4.3 | 0.00 | 0.00 | 0.00 | 50 | 999.2 |
| 20260505000206 | 96 | 167 | 0.9 | 4.3 | 0.00 | 0.00 | 0.00 | 50 | 999.2 |
| 20260505000105 | 96 | 160 | 0.9 | 4.3 | 0.00 | 0.00 | 0.00 | 50 | 999.2 |
| 20260505000006 | 96 | 159 | 0.0 | 4.3 | 0.00 | 0.00 | 0.00 | 50 | 999.1 |
| 20260504235906 | 96 | 0 | 0.0 | 4.3 | 0.00 | 0.00 | 0.00 | 50 | 999.3 |
| 20260504235806 | 96 | 159 | 0.9 | 4.3 | 0.00 | 0.00 | 0.00 | 50 | 999.2 |
| 20260504235706 | 96 | 160 | 1.7 | 4.3 | 0.00 | 0.00 | 0.00 | 50 | 999.2 |
| 20260504235606 | 96 | 163 | 1.7 | 4.3 | 0.00 | 0.00 | 0.00 | 50 | 999.0 |
| 20260504235505 | 96 | 167 | 1.7 | 4.3 | 0.00 | 0.00 | 0.00 | 50 | 999.3 |
| 20260504235406 | 96 | 169 | 1.7 | 4.3 | 0.00 | 0.00 | 0.00 | 50 | 999.2 |
| 20260504235306 | 96 | 170 | 1.7 | 4.3 | 0.00 | 0.00 | 0.00 | 50 | 999.1 |
| 20260504235205 | 96 | 163 | 0.9 | 4.3 | 0.00 | 0.00 | 0.00 | 50 | 999.2 |
| 20260504235106 | 95 | 162 | 0.0 | 3.5 | 0.00 | 0.00 | 0.00 | 50 | 999.2 |
| 20260504235006 | 95 | 156 | 0.0 | 4.3 | 0.00 | 0.00 | 0.00 | 50 | 999.2 |
| 20260504234906 | 95 | 149 | 0.9 | 4.3 | 0.00 | 0.00 | 0.00 | 50 | 999.2 |
| 20260504234827 | 95 | 145 | 1.7 | 4.3 | 0.00 | 0.00 | 0.00 | 50 | 999.2 |
| 20260504234706 | 95 | 145 | 1.7 | 6.1 | 0.00 | 0.00 | 0.00 | 50 | 999.3 |
| 20260504234606 | 95 | 144 | 1.7 | 6.1 | 0.00 | 0.00 | 0.00 | 50 | 999.4 |
| 20260504234506 | 95 | 146 | 0.9 | 6.1 | 0.00 | 0.00 | 0.00 | 50 | 999.4 |
| 20260504234406 | 95 | 148 | 0.9 | 6.1 | 0.00 | 0.00 | 0.00 | 50 | 999.4 |
| 20260504234306 | 95 | 147 | 1.7 | 6.1 | 0.00 | 0.00 | 0.00 | 50 | 999.2 |
| 20260504234205 | 95 | 157 | 1.7 | 6.1 | 0.00 | 0.00 | 0.00 | 50 | 999.3 |
| 20260504234106 | 96 | 163 | 2.6 | 6.1 | 0.00 | 0.00 | 0.00 | 50 | 999.2 |
| 20260504234006 | 96 | 170 | 2.6 | 6.1 | 0.00 | 0.00 | 0.00 | 50 | 999.4 |
| 20260504233905 | 96 | 185 | 1.7 | 6.1 | 0.00 | 0.00 | 0.00 | 50 | 999.3 |
| 20260504233806 | 96 | 190 | 1.7 | 6.1 | 0.00 | 0.00 | 0.00 | 50 | 999.3 |
| 20260504233727 | 96 | 0 | 0.0 | 4.3 | 0.00 | 0.00 | 0.00 | 50 | 999.2 |
| 20260504233606 | 96 | 187 | 0.9 | 4.3 | 0.00 | 0.00 | 0.00 | 50 | 999.3 |
| 20260504233526 | 96 | 188 | 0.9 | 4.3 | 0.00 | 0.00 | 0.00 | 50 | 999.2 |
| 20260504233406 | 96 | 187 | 0.9 | 4.3 | 0.00 | 0.00 | 0.00 | 50 | 999.4 |
| 20260504233306 | 96 | 0 | 0.0 | 4.3 | 0.00 | 0.00 | 0.00 | 50 | 999.1 |
| 20260504233227 | 96 | 0 | 0.0 | 4.3 | 0.00 | 0.00 | 0.00 | 50 | 999.3 |
| 20260504233106 | 95 | 0 | 0.0 | 4.3 | 0.00 | 0.00 | 0.00 | 50 | 999.3 |
| 20260504233027 | 95 | 0 | 0.0 | 4.3 | 0.00 | 0.00 | 0.00 | 50 | 999.3 |
| 20260504232906 | 95 | 201 | 0.9 | 4.3 | 0.00 | 0.00 | 0.00 | 50 | 999.3 |
| 20260504232806 | 95 | 205 | 2.6 | 4.3 | 0.00 | 0.00 | 0.00 | 50 | 999.3 |
| 20260504232727 | 95 | 214 | 1.7 | 4.3 | 0.00 | 0.00 | 0.00 | 50 | 999.3 |
| 20260504232626 | 95 | 214 | 0.9 | 3.5 | 0.00 | 0.00 | 0.00 | 50 | 999.3 |
| 20260504232506 | 95 | 213 | 0.9 | 3.5 | 0.00 | 0.00 | 0.00 | 50 | 999.4 |
| 20260504232406 | 95 | 213 | 0.9 | 3.5 | 0.00 | 0.00 | 0.00 | 50 | 999.4 |
| 20260504232305 | 95 | 207 | 1.7 | 3.5 | 0.00 | 0.00 | 0.00 | 50 | 999.4 |
| 20260504232227 | 95 | 205 | 0.9 | 3.5 | 0.00 | 0.00 | 0.00 | 50 | 999.2 |
| 20260504232127 | 95 | 203 | 0.0 | 2.6 | 0.00 | 0.00 | 0.00 | 50 | 999.3 |
| 20260504232005 | 95 | 208 | 0.0 | 2.6 | 0.00 | 0.00 | 0.00 | 50 | 999.3 |
| 20260504231905 | 95 | 0 | 0.0 | 2.6 | 0.00 | 0.00 | 0.00 | 50 | 999.4 |
| 20260504231806 | 95 | 0 | 0.0 | 2.6 | 0.00 | 0.00 | 0.00 | 50 | 999.3 |
| 20260504231727 | 95 | 211 | 0.0 | 2.6 | 0.00 | 0.00 | 0.00 | 50 | 999.3 |
| 20260504231605 | 95 | 212 | 0.9 | 2.6 | 0.00 | 0.00 | 0.00 | 50 | 999.5 |
| 20260504231506 | 95 | 190 | 0.9 | 2.6 | 0.00 | 0.00 | 0.00 | 50 | 999.4 |
| 20260504231406 | 95 | 0 | 0.0 | 4.3 | 0.00 | 0.00 | 0.00 | 50 | 999.4 |
| 20260504231305 | 95 | 128 | 0.9 | 4.3 | 0.00 | 0.00 | 0.00 | 50 | 999.4 |
| 20260504231206 | 95 | 121 | 0.0 | 4.3 | 0.00 | 0.00 | 0.00 | 50 | 999.4 |
| 20260504231106 | 95 | 0 | 0.0 | 4.3 | 0.00 | 0.00 | 0.00 | 50 | 999.5 |
| 20260504231027 | 94 | 0 | 0.0 | 4.3 | 0.00 | 0.00 | 0.00 | 50 | 999.4 |
| 20260504230906 | 94 | 0 | 0.0 | 4.3 | 0.00 | 0.00 | 0.00 | 50 | 999.5 |
| 20260504230806 | 94 | 0 | 0.0 | 7.8 | 0.00 | 0.00 | 0.00 | 50 | 999.5 |
| 20260504230706 | 94 | 121 | 0.0 | 7.8 | 0.00 | 0.00 | 0.00 | 50 | 999.5 |
| 20260504230605 | 94 | 122 | 0.9 | 7.8 | 0.00 | 0.00 | 0.00 | 50 | 999.3 |
| 20260504230506 | 93 | 128 | 2.6 | 7.8 | 0.00 | 0.00 | 0.00 | 50 | 999.5 |
| 20260504230405 | 93 | 138 | 1.7 | 7.8 | 0.00 | 0.00 | 0.00 | 50 | 999.5 |
| 20260504230306 | 93 | 146 | 1.7 | 7.8 | 0.00 | 0.00 | 0.00 | 50 | 999.5 |
| 20260504230206 | 93 | 150 | 1.7 | 7.8 | 0.00 | 0.00 | 0.00 | 50 | 999.5 |
| 20260504230127 | 94 | 150 | 1.7 | 7.8 | 0.00 | 0.00 | 0.00 | 50 | 999.6 |
| 20260504230006 | 94 | 151 | 1.7 | 7.8 | 0.00 | 0.00 | 0.00 | 50 | 999.5 |
| 20260504225906 | 94 | 154 | 0.9 | 7.8 | 0.00 | 0.00 | 0.00 | 50 | 999.5 |
| 20260504225806 | 94 | 159 | 2.6 | 7.8 | 0.00 | 0.00 | 0.00 | 50 | 999.5 |
| 20260504225705 | 94 | 171 | 0.0 | 4.3 | 0.00 | 0.00 | 0.00 | 50 | 999.5 |
| 20260504225606 | 94 | 173 | 0.9 | 4.3 | 0.00 | 0.00 | 0.00 | 50 | 999.5 |
| 20260504225506 | 94 | 170 | 0.9 | 4.3 | 0.00 | 0.00 | 0.00 | 50 | 999.5 |
| 20260504225406 | 94 | 165 | 1.7 | 4.3 | 0.00 | 0.00 | 0.00 | 50 | 999.5 |
| 20260504225327 | 94 | 162 | 0.9 | 4.3 | 0.00 | 0.00 | 0.00 | 50 | 999.5 |
| 20260504225206 | 94 | 156 | 1.7 | 4.3 | 0.00 | 0.00 | 0.00 | 50 | 999.6 |
| 20260504225105 | 94 | 157 | 0.0 | 4.3 | 0.00 | 0.00 | 0.00 | 50 | 999.6 |
| 20260504225006 | 94 | 152 | 1.7 | 4.3 | 0.00 | 0.00 | 0.00 | 50 | 999.7 |
| 20260504224906 | 94 | 142 | 1.7 | 4.3 | 0.00 | 0.00 | 0.00 | 50 | 999.5 |
| 20260504224805 | 94 | 139 | 1.7 | 4.3 | 0.00 | 0.00 | 0.00 | 50 | 999.7 |
| 20260504224705 | 94 | 142 | 1.7 | 4.3 | 0.00 | 0.00 | 0.00 | 50 | 999.6 |
| 20260504224606 | 93 | 139 | 0.9 | 4.3 | 0.00 | 0.00 | 0.00 | 50 | 999.7 |
| 20260504224506 | 93 | 0 | 0.0 | 4.3 | 0.00 | 0.00 | 0.00 | 50 | 999.6 |
| 20260504224405 | 93 | 133 | 0.9 | 4.3 | 0.00 | 0.00 | 0.00 | 50 | 999.5 |
| 20260504224306 | 93 | 136 | 0.9 | 4.3 | 0.00 | 0.00 | 0.00 | 50 | 999.6 |
| 20260504224206 | 93 | 145 | 0.9 | 4.3 | 0.00 | 0.00 | 0.00 | 50 | 999.8 |
| 20260504224105 | 93 | 147 | 1.7 | 4.3 | 0.00 | 0.00 | 0.00 | 50 | 999.7 |
| 20260504224027 | 93 | 153 | 2.6 | 4.3 | 0.00 | 0.00 | 0.00 | 50 | 999.7 |
| 20260504223906 | 94 | 176 | 0.9 | 4.3 | 0.00 | 0.00 | 0.00 | 50 | 999.8 |
| 20260504223806 | 94 | 182 | 2.6 | 4.3 | 0.00 | 0.00 | 0.00 | 50 | 999.8 |
| 20260504223706 | 94 | 172 | 0.9 | 4.3 | 0.00 | 0.00 | 0.00 | 50 | 999.8 |
| 20260504223606 | 94 | 166 | 0.0 | 3.5 | 0.00 | 0.00 | 0.00 | 50 | 999.7 |
| 20260504223505 | 94 | 166 | 0.9 | 3.5 | 0.00 | 0.00 | 0.00 | 50 | 999.6 |
| 20260504223405 | 93 | 0 | 0.0 | 3.5 | 0.00 | 0.00 | 0.00 | 50 | 999.8 |
| 20260504223306 | 94 | 0 | 0.0 | 5.2 | 0.00 | 0.00 | 0.00 | 50 | 999.7 |
| 20260504223205 | 94 | 157 | 0.0 | 5.2 | 0.00 | 0.00 | 0.00 | 50 | 999.8 |
| 20260504223105 | 94 | 159 | 0.9 | 5.2 | 0.00 | 0.00 | 0.00 | 50 | 999.8 |
| 20260504223006 | 94 | 0 | 0.0 | 5.2 | 0.00 | 0.00 | 0.00 | 50 | 999.7 |
| 20260504222906 | 94 | 0 | 0.0 | 5.2 | 0.00 | 0.00 | 0.00 | 50 | 999.7 |
| 20260504222805 | 94 | 152 | 0.9 | 5.2 | 0.00 | 0.00 | 0.00 | 50 | 999.9 |
| 20260504222706 | 94 | 147 | 1.7 | 5.2 | 0.00 | 0.00 | 0.00 | 50 | 999.9 |
| 20260504222606 | 94 | 146 | 0.9 | 5.2 | 0.00 | 0.00 | 0.00 | 50 | 1000.0 |
| 20260504222506 | 94 | 143 | 1.7 | 5.2 | 0.00 | 0.00 | 0.00 | 50 | 999.9 |
| 20260504222406 | 94 | 138 | 1.7 | 5.2 | 0.00 | 0.00 | 0.00 | 50 | 999.9 |
| 20260504222306 | 94 | 148 | 1.7 | 5.2 | 0.00 | 0.00 | 0.00 | 50 | 1000.0 |
| 20260504222206 | 94 | 156 | 0.9 | 4.3 | 0.00 | 0.00 | 0.00 | 50 | 999.9 |
| 20260504222106 | 94 | 0 | 0.0 | 4.3 | 0.00 | 0.00 | 0.00 | 50 | 1000.0 |
| 20260504222027 | 94 | 0 | 0.0 | 4.3 | 0.00 | 0.00 | 0.00 | 50 | 999.9 |
| 20260504221906 | 94 | 148 | 1.7 | 4.3 | 0.00 | 0.00 | 0.00 | 50 | 999.9 |
| 20260504221806 | 94 | 147 | 1.7 | 4.3 | 0.00 | 0.00 | 0.00 | 50 | 999.9 |
| 20260504221706 | 94 | 145 | 0.9 | 4.3 | 0.00 | 0.00 | 0.00 | 50 | 999.9 |
| 20260504221606 | 94 | 148 | 0.0 | 4.3 | 0.00 | 0.00 | 0.00 | 50 | 999.9 |
| 20260504221527 | 94 | 0 | 0.0 | 3.5 | 0.00 | 0.00 | 0.00 | 50 | 1000.0 |
| 20260504221406 | 94 | 145 | 0.0 | 3.5 | 0.00 | 0.00 | 0.00 | 50 | 1000.0 |
| 20260504221306 | 93 | 140 | 0.9 | 3.5 | 0.00 | 0.00 | 0.00 | 50 | 1000.0 |
| 20260504221206 | 93 | 133 | 0.9 | 3.5 | 0.00 | 0.00 | 0.00 | 50 | 1000.0 |
| 20260504221127 | 93 | 128 | 0.0 | 4.3 | 0.00 | 0.00 | 0.00 | 50 | 1000.0 |
| 20260504221006 | 93 | 123 | 0.0 | 5.2 | 0.00 | 0.00 | 0.00 | 50 | 1000.2 |
| 20260504220905 | 93 | 123 | 0.9 | 5.2 | 0.00 | 0.00 | 0.00 | 50 | 1000.2 |
| 20260504220806 | 93 | 126 | 0.9 | 5.2 | 0.00 | 0.00 | 0.00 | 50 | 1000.3 |
| 20260504220706 | 93 | 130 | 0.9 | 5.2 | 0.00 | 0.00 | 0.00 | 50 | 1000.1 |
| 20260504220606 | 93 | 130 | 0.0 | 5.2 | 0.00 | 0.00 | 0.00 | 50 | 1000.2 |
| 20260504220505 | 93 | 122 | 0.9 | 7.0 | 0.00 | 0.00 | 0.00 | 50 | 1000.1 |
| 20260504220406 | 93 | 122 | 0.9 | 7.0 | 0.00 | 0.00 | 0.00 | 50 | 1000.3 |
| 20260504220305 | 93 | 124 | 1.7 | 7.0 | 0.00 | 0.00 | 0.00 | 50 | 1000.3 |
| 20260504220206 | 93 | 125 | 1.7 | 7.0 | 0.00 | 0.00 | 0.00 | 50 | 1000.2 |
| 20260504220106 | 93 | 133 | 1.7 | 7.0 | 0.00 | 0.00 | 0.00 | 50 | 1000.2 |
| 20260504220006 | 93 | 142 | 0.9 | 7.0 | 0.00 | 0.00 | 0.00 | 50 | 1000.2 |
| 20260504215926 | 93 | 148 | 0.9 | 7.0 | 0.00 | 0.00 | 0.00 | 50 | 1000.2 |
| 20260504215806 | 93 | 149 | 0.9 | 7.0 | 0.00 | 0.00 | 0.00 | 50 | 1000.3 |
| 20260504215706 | 93 | 150 | 1.7 | 7.0 | 0.00 | 0.00 | 0.00 | 50 | 1000.2 |
| 20260504215626 | 93 | 152 | 2.6 | 7.0 | 0.00 | 0.00 | 0.00 | 50 | 1000.3 |
| 20260504215527 | 93 | 162 | 1.7 | 7.0 | 0.00 | 0.00 | 0.00 | 50 | 1000.3 |
| 20260504215406 | 93 | 160 | 0.0 | 6.1 | 0.00 | 0.00 | 0.00 | 50 | 1000.3 |
| 20260504215306 | 93 | 0 | 0.0 | 6.1 | 0.00 | 0.00 | 0.00 | 50 | 1000.3 |
| 20260504215206 | 93 | 147 | 0.9 | 6.1 | 0.00 | 0.00 | 0.00 | 50 | 1000.4 |
| 20260504215106 | 93 | 147 | 0.9 | 7.0 | 0.00 | 0.00 | 0.00 | 50 | 1000.3 |
| 20260504215006 | 93 | 139 | 0.9 | 7.0 | 0.00 | 0.00 | 0.00 | 50 | 1000.3 |
| 20260504214906 | 93 | 125 | 1.7 | 7.0 | 0.00 | 0.00 | 0.00 | 50 | 1000.4 |
| 20260504214806 | 92 | 123 | 1.7 | 7.0 | 0.00 | 0.00 | 0.00 | 50 | 1000.5 |
| 20260504214705 | 92 | 123 | 0.9 | 7.0 | 0.00 | 0.00 | 0.00 | 50 | 1000.7 |
| 20260504214606 | 92 | 131 | 0.9 | 7.0 | 0.00 | 0.00 | 0.00 | 50 | 1000.3 |
| 20260504214506 | 92 | 139 | 1.7 | 7.0 | 0.00 | 0.00 | 0.00 | 50 | 1000.5 |
| 20260504214405 | 92 | 143 | 2.6 | 7.0 | 0.00 | 0.00 | 0.00 | 50 | 1000.4 |
| 20260504214305 | 92 | 153 | 1.7 | 7.0 | 0.00 | 0.00 | 0.00 | 50 | 1000.5 |
| 20260504214206 | 92 | 154 | 2.6 | 7.0 | 0.00 | 0.00 | 0.00 | 50 | 1000.5 |
| 20260504214105 | 92 | 153 | 3.5 | 7.0 | 0.00 | 0.00 | 0.00 | 50 | 1000.5 |
| 20260504214006 | 93 | 156 | 3.5 | 7.0 | 0.00 | 0.00 | 0.00 | 50 | 1000.5 |
| 20260504213906 | 93 | 171 | 2.6 | 7.0 | 0.00 | 0.00 | 0.00 | 50 | 1000.5 |
| 20260504213827 | 93 | 175 | 2.6 | 7.0 | 0.00 | 0.00 | 0.00 | 50 | 1000.5 |
| 20260504213726 | 94 | 185 | 1.7 | 7.0 | 0.00 | 0.00 | 0.00 | 50 | 1000.6 |
| 20260504213627 | 94 | 181 | 2.6 | 7.0 | 0.00 | 0.00 | 0.00 | 50 | 1000.5 |
| 20260504213527 | 94 | 185 | 0.9 | 7.0 | 0.00 | 0.00 | 0.00 | 50 | 1000.6 |
| 20260504213427 | 94 | 190 | 0.0 | 7.0 | 0.00 | 0.00 | 0.00 | 50 | 1000.5 |
| 20260504213305 | 93 | 174 | 1.7 | 4.3 | 0.00 | 0.00 | 0.00 | 50 | 1000.6 |
| 20260504213227 | 93 | 155 | 1.7 | 4.3 | 0.00 | 0.00 | 0.00 | 50 | 1000.7 |
| 20260504213126 | 93 | 142 | 1.7 | 4.3 | 0.00 | 0.00 | 0.00 | 50 | 1000.5 |
| 20260504213006 | 94 | 121 | 1.7 | 3.5 | 0.00 | 0.00 | 0.00 | 50 | 1000.7 |
| 20260504212906 | 94 | 125 | 1.7 | 3.5 | 0.00 | 0.00 | 0.00 | 50 | 1000.5 |
| 20260504212805 | 94 | 130 | 0.0 | 3.5 | 0.00 | 0.00 | 0.00 | 50 | 1000.5 |
| 20260504212705 | 94 | 129 | 0.9 | 3.5 | 0.00 | 0.00 | 0.00 | 50 | 1000.6 |
| 20260504212605 | 94 | 127 | 0.9 | 3.5 | 0.00 | 0.00 | 0.00 | 50 | 1000.7 |
| 20260504212506 | 94 | 124 | 1.7 | 3.5 | 0.00 | 0.00 | 0.00 | 50 | 1000.9 |
| 20260504212426 | 94 | 132 | 0.9 | 3.5 | 0.00 | 0.00 | 0.00 | 50 | 1000.7 |
| 20260504212306 | 94 | 149 | 0.9 | 3.5 | 0.00 | 0.00 | 0.00 | 50 | 1000.7 |
| 20260504212206 | 94 | 173 | 0.9 | 3.5 | 0.00 | 0.00 | 0.00 | 50 | 1000.7 |
| 20260504212105 | 94 | 187 | 0.0 | 3.5 | 0.00 | 0.00 | 0.00 | 50 | 1000.8 |
| 20260504212006 | 93 | 194 | 0.9 | 3.5 | 0.00 | 0.00 | 0.00 | 50 | 1000.8 |
| 20260504211906 | 93 | 0 | 0.0 | 3.5 | 0.00 | 0.00 | 0.00 | 50 | 1000.8 |
| 20260504211805 | 93 | 0 | 0.0 | 3.5 | 0.00 | 0.00 | 0.00 | 50 | 1001.0 |
| 20260504211727 | 93 | 0 | 0.0 | 3.5 | 0.00 | 0.00 | 0.00 | 50 | 1000.8 |
| 20260504211606 | 93 | 0 | 0.0 | 3.5 | 0.00 | 0.00 | 0.00 | 50 | 1000.8 |
| 20260504211506 | 92 | 0 | 0.0 | 3.5 | 0.00 | 0.00 | 0.00 | 50 | 1000.9 |
| 20260504211405 | 92 | 175 | 0.0 | 4.3 | 0.00 | 0.00 | 0.00 | 50 | 1000.8 |
| 20260504211306 | 92 | 168 | 0.9 | 4.3 | 0.00 | 0.00 | 0.00 | 50 | 1001.0 |
| 20260504211205 | 92 | 173 | 0.0 | 4.3 | 0.00 | 0.00 | 0.00 | 50 | 1001.0 |
| 20260504211106 | 92 | 0 | 0.0 | 4.3 | 0.00 | 0.00 | 0.00 | 50 | 1001.0 |
| 20260504211006 | 92 | 0 | 0.0 | 4.3 | 0.00 | 0.00 | 0.00 | 50 | 1001.0 |
| 20260504210906 | 91 | 155 | 0.0 | 4.3 | 0.00 | 0.00 | 0.00 | 50 | 1001.0 |
| 20260504210806 | 91 | 158 | 0.9 | 4.3 | 0.00 | 0.00 | 0.00 | 50 | 1001.0 |
| 20260504210727 | 91 | 154 | 0.0 | 4.3 | 0.00 | 0.00 | 0.00 | 50 | 1001.0 |
| 20260504210627 | 91 | 150 | 0.9 | 4.3 | 0.00 | 0.00 | 0.00 | 50 | 1001.0 |
| 20260504210505 | 91 | 147 | 0.9 | 4.3 | 0.00 | 0.00 | 0.00 | 50 | 1000.9 |
| 20260504210406 | 91 | 153 | 2.6 | 4.3 | 0.00 | 0.00 | 0.00 | 50 | 1001.0 |
| 20260504210306 | 91 | 161 | 1.7 | 3.5 | 0.00 | 0.00 | 0.00 | 50 | 1001.0 |
| 20260504210205 | 91 | 157 | 1.7 | 3.5 | 0.00 | 0.00 | 0.00 | 50 | 1001.0 |
| 20260504210105 | 92 | 155 | 1.7 | 3.5 | 0.00 | 0.00 | 0.00 | 50 | 1001.1 |
| 20260504210006 | 92 | 161 | 1.7 | 3.5 | 0.00 | 0.00 | 0.00 | 50 | 1001.0 |
| 20260504205905 | 92 | 174 | 1.7 | 3.5 | 0.00 | 0.00 | 0.00 | 50 | 1001.2 |
| 20260504205805 | 92 | 166 | 1.7 | 3.5 | 0.00 | 0.00 | 0.00 | 50 | 1001.1 |
| 20260504205727 | 92 | 164 | 1.7 | 3.5 | 0.00 | 0.00 | 0.00 | 50 | 1001.2 |
| 20260504205605 | 92 | 164 | 0.9 | 3.5 | 0.00 | 0.00 | 0.00 | 50 | 1001.2 |
| 20260504205505 | 92 | 179 | 0.9 | 2.6 | 0.00 | 0.00 | 0.00 | 50 | 1001.0 |
| 20260504205406 | 92 | 160 | 0.9 | 2.6 | 0.00 | 0.00 | 0.00 | 50 | 1001.1 |
| 20260504205305 | 92 | 161 | 0.9 | 3.5 | 0.00 | 0.00 | 0.00 | 50 | 1001.1 |
| 20260504205205 | 92 | 138 | 0.0 | 3.5 | 0.00 | 0.00 | 0.00 | 50 | 1001.1 |
| 20260504205105 | 91 | 0 | 0.0 | 3.5 | 0.00 | 0.00 | 0.00 | 50 | 1001.2 |
| 20260504205027 | 91 | 0 | 0.0 | 3.5 | 0.00 | 0.00 | 0.00 | 50 | 1001.2 |
| 20260504204905 | 91 | 126 | 0.9 | 3.5 | 0.00 | 0.00 | 0.00 | 50 | 1001.2 |
| 20260504204805 | 91 | 120 | 1.7 | 7.0 | 0.00 | 0.00 | 0.00 | 50 | 1001.1 |
| 20260504204706 | 91 | 116 | 1.7 | 7.0 | 0.00 | 0.00 | 0.00 | 50 | 1001.1 |
| 20260504204605 | 91 | 121 | 0.0 | 7.0 | 0.00 | 0.00 | 0.00 | 50 | 1001.1 |
| 20260504204505 | 91 | 108 | 0.9 | 7.0 | 0.00 | 0.00 | 0.00 | 50 | 1001.3 |
| 20260504204406 | 91 | 105 | 1.7 | 7.0 | 0.00 | 0.00 | 0.00 | 50 | 1001.2 |
| 20260504204306 | 91 | 109 | 0.9 | 7.0 | 0.00 | 0.00 | 0.00 | 50 | 1001.1 |
| 20260504204205 | 91 | 123 | 0.0 | 7.0 | 0.00 | 0.00 | 0.00 | 50 | 1001.3 |
| 20260504204106 | 90 | 0 | 0.0 | 7.0 | 0.00 | 0.00 | 0.00 | 50 | 1001.2 |
| 20260504204005 | 90 | 0 | 0.0 | 7.0 | 0.00 | 0.00 | 0.00 | 50 | 1001.3 |
| 20260504203906 | 90 | 126 | 2.6 | 7.0 | 0.00 | 0.00 | 0.00 | 51 | 1001.2 |
| 20260504203806 | 91 | 132 | 2.6 | 7.0 | 0.00 | 0.00 | 0.00 | 51 | 1001.3 |
| 20260504203705 | 91 | 145 | 1.7 | 4.3 | 0.00 | 0.00 | 0.00 | 51 | 1001.2 |
| 20260504203605 | 91 | 144 | 1.7 | 6.1 | 0.00 | 0.00 | 0.00 | 51 | 1001.4 |
| 20260504203505 | 91 | 159 | 0.9 | 6.1 | 0.00 | 0.00 | 0.00 | 51 | 1001.4 |
| 20260504203427 | 91 | 160 | 0.9 | 7.0 | 0.00 | 0.00 | 0.00 | 51 | 1001.4 |
| 20260504203305 | 91 | 155 | 1.7 | 7.0 | 0.00 | 0.00 | 0.00 | 51 | 1001.3 |
| 20260504203205 | 91 | 152 | 2.6 | 7.0 | 0.00 | 0.00 | 0.00 | 51 | 1001.4 |
| 20260504203106 | 91 | 146 | 0.9 | 7.0 | 0.00 | 0.00 | 0.00 | 51 | 1001.4 |
| 20260504203005 | 90 | 0 | 0.0 | 7.0 | 0.00 | 0.00 | 0.00 | 50 | 1001.4 |
| 20260504202906 | 90 | 0 | 0.0 | 7.0 | 0.00 | 0.00 | 0.00 | 50 | 1001.5 |
| 20260504202806 | 90 | 139 | 0.9 | 7.0 | 0.00 | 0.00 | 0.00 | 50 | 1001.5 |
| 20260504202705 | 90 | 135 | 1.7 | 7.0 | 0.00 | 0.00 | 0.00 | 50 | 1001.4 |
| 20260504202605 | 90 | 133 | 2.6 | 7.0 | 0.00 | 0.00 | 0.00 | 50 | 1001.4 |
| 20260504202506 | 90 | 129 | 2.6 | 7.0 | 0.00 | 0.00 | 0.00 | 50 | 1001.4 |
| 20260504202405 | 90 | 125 | 0.9 | 7.0 | 0.00 | 0.00 | 0.00 | 50 | 1001.5 |
| 20260504202305 | 90 | 124 | 0.9 | 6.1 | 0.00 | 0.00 | 0.00 | 50 | 1001.4 |
| 20260504202206 | 90 | 126 | 0.9 | 6.1 | 0.00 | 0.00 | 0.00 | 50 | 1001.4 |
| 20260504202105 | 90 | 130 | 0.9 | 5.2 | 0.00 | 0.00 | 0.00 | 50 | 1001.5 |
| 20260504202005 | 90 | 137 | 0.9 | 5.2 | 0.00 | 0.00 | 0.00 | 50 | 1001.5 |
| 20260504201906 | 90 | 137 | 2.6 | 4.3 | 0.00 | 0.00 | 0.00 | 50 | 1001.5 |
| 20260504201827 | 90 | 138 | 2.6 | 4.3 | 0.00 | 0.00 | 0.00 | 50 | 1001.5 |
| 20260504201706 | 90 | 141 | 1.7 | 7.0 | 0.00 | 0.00 | 0.00 | 50 | 1001.5 |
| 20260504201626 | 90 | 148 | 0.9 | 7.0 | 0.00 | 0.00 | 0.00 | 50 | 1001.6 |
| 20260504201506 | 90 | 159 | 0.0 | 7.0 | 0.00 | 0.00 | 0.00 | 50 | 1001.5 |
| 20260504201405 | 90 | 158 | 0.9 | 7.0 | 0.00 | 0.00 | 0.00 | 50 | 1001.5 |
| 20260504201306 | 90 | 162 | 0.0 | 7.0 | 0.00 | 0.00 | 0.00 | 50 | 1001.6 |
| 20260504201206 | 90 | 159 | 0.9 | 7.0 | 0.00 | 0.00 | 0.00 | 50 | 1001.6 |
| 20260504201105 | 90 | 162 | 1.7 | 7.0 | 0.00 | 0.00 | 0.00 | 50 | 1001.6 |
| 20260504201005 | 90 | 167 | 0.9 | 7.0 | 0.00 | 0.00 | 0.00 | 50 | 1001.5 |
| 20260504200906 | 90 | 167 | 0.9 | 7.0 | 0.00 | 0.00 | 0.00 | 50 | 1001.6 |
| 20260504200805 | 89 | 158 | 2.6 | 7.0 | 0.00 | 0.00 | 0.00 | 50 | 1001.5 |
| 20260504200705 | 89 | 156 | 1.7 | 7.0 | 0.00 | 0.00 | 0.00 | 50 | 1001.6 |
| 20260504200627 | 89 | 149 | 1.7 | 7.0 | 0.00 | 0.00 | 0.00 | 50 | 1001.6 |
| 20260504200526 | 89 | 139 | 0.0 | 6.1 | 0.00 | 0.00 | 0.00 | 51 | 1001.6 |
| 20260504200405 | 89 | 142 | 0.9 | 6.1 | 0.00 | 0.00 | 0.00 | 51 | 1001.6 |
| 20260504200306 | 88 | 145 | 1.7 | 6.1 | 0.00 | 0.00 | 0.00 | 51 | 1001.5 |
| 20260504200206 | 88 | 146 | 1.7 | 6.1 | 0.00 | 0.00 | 0.00 | 51 | 1001.6 |
| 20260504200105 | 88 | 147 | 1.7 | 6.1 | 0.00 | 0.00 | 0.00 | 51 | 1001.5 |
| 20260504200006 | 88 | 140 | 0.0 | 6.1 | 0.00 | 0.00 | 0.00 | 50 | 1001.6 |
| 20260504195927 | 88 | 137 | 1.7 | 6.1 | 0.00 | 0.00 | 0.00 | 51 | 1001.6 |
| 20260504195805 | 88 | 140 | 1.7 | 6.1 | 0.00 | 0.00 | 0.00 | 51 | 1001.7 |
| 20260504195705 | 88 | 142 | 0.9 | 6.1 | 0.00 | 0.00 | 0.00 | 52 | 1001.8 |
| 20260504195606 | 88 | 149 | 0.0 | 6.1 | 0.00 | 0.00 | 0.00 | 52 | 1001.8 |
| 20260504195505 | 88 | 149 | 0.9 | 6.1 | 0.00 | 0.00 | 0.00 | 52 | 1001.7 |
| 20260504195406 | 88 | 144 | 1.7 | 6.1 | 0.00 | 0.00 | 0.00 | 51 | 1001.7 |
| 20260504195306 | 88 | 139 | 1.7 | 6.1 | 0.00 | 0.00 | 0.00 | 52 | 1001.6 |
| 20260504195205 | 88 | 126 | 2.6 | 6.1 | 0.00 | 0.00 | 0.00 | 51 | 1001.6 |
| 20260504195126 | 88 | 121 | 0.9 | 6.1 | 0.00 | 0.00 | 0.00 | 51 | 1001.7 |
| 20260504195006 | 88 | 129 | 0.9 | 4.3 | 0.00 | 0.00 | 0.00 | 51 | 1001.6 |
| 20260504194926 | 88 | 129 | 1.7 | 4.3 | 0.00 | 0.00 | 0.00 | 51 | 1001.9 |
| 20260504194826 | 88 | 142 | 0.9 | 4.3 | 0.00 | 0.00 | 0.00 | 52 | 1001.7 |
| 20260504194727 | 88 | 149 | 0.9 | 4.3 | 0.00 | 0.00 | 0.00 | 52 | 1001.7 |
| 20260504194605 | 88 | 146 | 0.9 | 4.3 | 0.00 | 0.00 | 0.00 | 52 | 1001.8 |
| 20260504194505 | 87 | 139 | 0.9 | 4.3 | 0.00 | 0.00 | 0.00 | 53 | 1001.7 |
| 20260504194406 | 87 | 135 | 1.7 | 4.3 | 0.00 | 0.00 | 0.00 | 52 | 1001.7 |
| 20260504194306 | 87 | 136 | 2.6 | 4.3 | 0.00 | 0.00 | 0.00 | 51 | 1001.8 |
| 20260504194226 | 87 | 141 | 0.9 | 4.3 | 0.00 | 0.00 | 0.00 | 51 | 1001.8 |
| 20260504194105 | 87 | 149 | 0.9 | 4.3 | 0.00 | 0.00 | 0.00 | 51 | 1001.9 |
| 20260504194027 | 87 | 146 | 1.7 | 4.3 | 0.00 | 0.00 | 0.00 | 52 | 1001.8 |
| 20260504193905 | 87 | 145 | 1.7 | 4.3 | 0.00 | 0.00 | 0.00 | 52 | 1001.9 |
| 20260504193806 | 87 | 129 | 1.7 | 4.3 | 0.00 | 0.00 | 0.00 | 52 | 1001.8 |
| 20260504193726 | 87 | 126 | 1.7 | 4.3 | 0.00 | 0.00 | 0.00 | 52 | 1001.6 |
| 20260504193626 | 87 | 131 | 1.7 | 4.3 | 0.00 | 0.00 | 0.00 | 52 | 1001.6 |
| 20260504193505 | 87 | 142 | 0.9 | 3.5 | 0.00 | 0.00 | 0.00 | 53 | 1001.8 |
| 20260504193405 | 87 | 132 | 0.9 | 6.1 | 0.00 | 0.00 | 0.00 | 53 | 1001.7 |
| 20260504193305 | 86 | 139 | 1.7 | 6.1 | 0.00 | 0.00 | 0.00 | 54 | 1001.8 |
| 20260504193205 | 86 | 124 | 0.9 | 6.1 | 0.00 | 0.00 | 0.00 | 54 | 1001.8 |
| 20260504193105 | 86 | 112 | 0.0 | 6.1 | 0.00 | 0.00 | 0.00 | 55 | 1001.9 |
| 20260504193006 | 86 | 106 | 0.9 | 6.1 | 0.00 | 0.00 | 0.00 | 55 | 1001.8 |
| 20260504192905 | 86 | 98 | 1.7 | 6.1 | 0.00 | 0.00 | 0.00 | 54 | 1001.9 |
| 20260504192806 | 86 | 116 | 0.9 | 6.1 | 0.00 | 0.00 | 0.00 | 55 | 1001.9 |
| 20260504192727 | 85 | 119 | 0.9 | 6.1 | 0.00 | 0.00 | 0.00 | 56 | 1001.9 |
| 20260504192605 | 85 | 117 | 1.7 | 6.1 | 0.00 | 0.00 | 0.00 | 55 | 1001.8 |
| 20260504192505 | 85 | 114 | 1.7 | 6.1 | 0.00 | 0.00 | 0.00 | 54 | 1001.8 |
| 20260504192406 | 85 | 135 | 1.7 | 6.1 | 0.00 | 0.00 | 0.00 | 54 | 1001.9 |
| 20260504192305 | 85 | 135 | 1.7 | 5.2 | 0.00 | 0.00 | 0.00 | 56 | 1001.9 |
| 20260504192206 | 84 | 139 | 0.9 | 5.2 | 0.00 | 0.00 | 0.00 | 57 | 1002.0 |
| 20260504192106 | 84 | 141 | 0.9 | 5.2 | 0.00 | 0.00 | 0.00 | 56 | 1001.9 |
| 20260504192005 | 84 | 136 | 0.9 | 6.1 | 0.00 | 0.00 | 0.00 | 56 | 1001.8 |
| 20260504191906 | 84 | 150 | 0.9 | 6.1 | 0.00 | 0.00 | 0.00 | 56 | 1002.0 |
| 20260504191806 | 84 | 0 | 0.0 | 6.1 | 0.00 | 0.00 | 0.00 | 57 | 1001.9 |
| 20260504191705 | 84 | 140 | 0.9 | 6.1 | 0.00 | 0.00 | 0.00 | 57 | 1002.0 |
| 20260504191627 | 84 | 136 | 1.7 | 6.1 | 0.00 | 0.00 | 0.00 | 57 | 1001.9 |
| 20260504191505 | 84 | 128 | 2.6 | 6.1 | 0.00 | 0.00 | 0.00 | 57 | 1002.1 |
| 20260504191406 | 84 | 130 | 2.6 | 6.1 | 0.00 | 0.00 | 0.00 | 57 | 1002.0 |
| 20260504191326 | 84 | 130 | 2.6 | 6.1 | 0.00 | 0.00 | 0.00 | 57 | 1002.1 |
| 20260504191205 | 84 | 139 | 1.7 | 6.1 | 0.00 | 0.00 | 0.00 | 57 | 1002.0 |
| 20260504191106 | 84 | 141 | 1.7 | 6.1 | 0.00 | 0.00 | 0.00 | 58 | 1002.0 |
| 20260504191006 | 84 | 150 | 2.6 | 6.1 | 0.00 | 0.00 | 0.00 | 58 | 1002.0 |
| 20260504190906 | 84 | 144 | 2.6 | 6.1 | 0.00 | 0.00 | 0.00 | 58 | 1002.1 |
| 20260504190805 | 84 | 142 | 1.7 | 6.1 | 0.00 | 0.00 | 0.00 | 58 | 1002.0 |
| 20260504190705 | 84 | 147 | 1.7 | 6.1 | 0.00 | 0.00 | 0.00 | 58 | 1002.0 |
| 20260504190605 | 84 | 153 | 1.7 | 6.1 | 0.00 | 0.00 | 0.00 | 59 | 1002.1 |
| 20260504190505 | 84 | 155 | 2.6 | 6.1 | 0.00 | 0.00 | 0.00 | 59 | 1002.2 |
| 20260504190405 | 84 | 159 | 0.9 | 6.1 | 0.00 | 0.00 | 0.00 | 59 | 1002.2 |
| 20260504190305 | 84 | 154 | 1.7 | 6.1 | 0.00 | 0.00 | 0.00 | 59 | 1002.2 |
| 20260504190226 | 84 | 151 | 1.7 | 6.1 | 0.00 | 0.00 | 0.00 | 59 | 1002.2 |
| 20260504190105 | 84 | 146 | 1.7 | 6.1 | 0.00 | 0.00 | 0.00 | 59 | 1002.2 |
| 20260504190005 | 84 | 146 | 1.7 | 6.1 | 0.00 | 0.00 | 0.00 | 60 | 1002.1 |
| 20260504185906 | 83 | 149 | 1.7 | 6.1 | 0.00 | 0.00 | 0.00 | 60 | 1002.1 |
| 20260504185805 | 83 | 150 | 2.6 | 6.1 | 0.00 | 0.00 | 0.00 | 60 | 1002.0 |
| 20260504185705 | 83 | 148 | 1.7 | 5.2 | 0.00 | 0.00 | 0.00 | 61 | 1002.1 |
| 20260504185605 | 83 | 143 | 1.7 | 5.2 | 0.00 | 0.00 | 0.00 | 61 | 1002.2 |
| 20260504185506 | 83 | 146 | 1.7 | 5.2 | 0.00 | 0.00 | 0.00 | 60 | 1002.1 |
| 20260504185405 | 83 | 145 | 1.7 | 5.2 | 0.00 | 0.00 | 0.00 | 60 | 1002.1 |
| 20260504185305 | 83 | 147 | 2.6 | 5.2 | 0.00 | 0.00 | 0.00 | 60 | 1002.2 |
| 20260504185206 | 83 | 149 | 0.9 | 5.2 | 0.00 | 0.00 | 0.00 | 60 | 1002.1 |
| 20260504185105 | 83 | 154 | 1.7 | 4.3 | 0.00 | 0.00 | 0.00 | 61 | 1002.1 |
| 20260504185026 | 83 | 157 | 1.7 | 4.3 | 0.00 | 0.00 | 0.00 | 61 | 1002.1 |
| 20260504184905 | 83 | 157 | 0.9 | 4.3 | 0.00 | 0.00 | 0.00 | 62 | 1002.2 |
| 20260504184805 | 82 | 154 | 1.7 | 4.3 | 0.00 | 0.00 | 0.00 | 62 | 1002.2 |
| 20260504184705 | 82 | 162 | 1.7 | 4.3 | 0.00 | 0.00 | 0.00 | 62 | 1002.1 |
| 20260504184605 | 82 | 171 | 1.7 | 3.5 | 0.00 | 0.00 | 0.00 | 62 | 1002.1 |
| 20260504184505 | 82 | 172 | 0.9 | 3.5 | 0.00 | 0.00 | 0.00 | 62 | 1002.2 |
| 20260504184405 | 82 | 0 | 0.0 | 3.5 | 0.00 | 0.00 | 0.00 | 63 | 1002.1 |
| 20260504184326 | 82 | 0 | 0.0 | 3.5 | 0.00 | 0.00 | 0.00 | 62 | 1002.2 |
| 20260504184206 | 82 | 174 | 0.9 | 3.5 | 0.00 | 0.00 | 0.00 | 62 | 1002.2 |
| 20260504184105 | 82 | 170 | 1.7 | 3.5 | 0.00 | 0.00 | 0.00 | 62 | 1002.2 |
| 20260504184005 | 82 | 168 | 0.9 | 3.5 | 0.00 | 0.00 | 0.00 | 63 | 1002.1 |
| 20260504183926 | 82 | 165 | 0.9 | 3.5 | 0.00 | 0.00 | 0.00 | 64 | 1002.2 |
| 20260504183805 | 81 | 164 | 0.0 | 3.5 | 0.00 | 0.00 | 0.00 | 64 | 1002.3 |
| 20260504183706 | 81 | 160 | 0.9 | 3.5 | 0.00 | 0.00 | 0.00 | 64 | 1002.2 |
| 20260504183605 | 81 | 161 | 0.0 | 3.5 | 0.00 | 0.00 | 0.00 | 63 | 1002.2 |
| 20260504183505 | 81 | 161 | 0.0 | 3.5 | 0.00 | 0.00 | 0.00 | 64 | 1002.2 |
| 20260504183406 | 81 | 159 | 0.9 | 3.5 | 0.00 | 0.00 | 0.00 | 63 | 1002.3 |
| 20260504183306 | 80 | 150 | 1.7 | 3.5 | 0.00 | 0.00 | 0.00 | 64 | 1002.2 |
| 20260504183226 | 80 | 144 | 1.7 | 3.5 | 0.00 | 0.00 | 0.00 | 64 | 1002.4 |
| 20260504183105 | 80 | 149 | 0.9 | 3.5 | 0.00 | 0.00 | 0.00 | 64 | 1002.3 |
| 20260504183027 | 80 | 149 | 1.7 | 3.5 | 0.00 | 0.00 | 0.00 | 64 | 1002.3 |
| 20260504182905 | 80 | 152 | 2.6 | 3.5 | 0.00 | 0.00 | 0.00 | 64 | 1002.4 |
| 20260504182805 | 80 | 158 | 1.7 | 3.5 | 0.00 | 0.00 | 0.00 | 64 | 1002.4 |
| 20260504182706 | 80 | 154 | 0.9 | 3.5 | 0.00 | 0.00 | 0.00 | 64 | 1002.5 |
| 20260504182606 | 80 | 153 | 0.9 | 3.5 | 0.00 | 0.00 | 0.00 | 65 | 1002.5 |
| 20260504182505 | 80 | 154 | 0.9 | 3.5 | 0.00 | 0.00 | 0.00 | 65 | 1002.4 |
| 20260504182426 | 80 | 152 | 0.9 | 3.5 | 0.00 | 0.00 | 0.00 | 64 | 1002.3 |
| 20260504182305 | 80 | 155 | 1.7 | 3.5 | 0.00 | 0.00 | 0.00 | 65 | 1002.4 |
| 20260504182226 | 80 | 153 | 1.7 | 3.5 | 0.00 | 0.00 | 0.00 | 65 | 1002.4 |
| 20260504182105 | 80 | 151 | 0.0 | 3.5 | 0.00 | 0.00 | 0.00 | 65 | 1002.3 |
| 20260504182006 | 80 | 150 | 0.9 | 3.5 | 0.00 | 0.00 | 0.00 | 65 | 1002.3 |
| 20260504181905 | 79 | 155 | 0.9 | 3.5 | 0.00 | 0.00 | 0.00 | 65 | 1002.3 |
| 20260504181806 | 79 | 151 | 1.7 | 3.5 | 0.00 | 0.00 | 0.00 | 66 | 1002.3 |
| 20260504181705 | 79 | 153 | 0.9 | 3.5 | 0.00 | 0.00 | 0.00 | 66 | 1002.3 |
| 20260504181605 | 79 | 152 | 0.9 | 3.5 | 0.00 | 0.00 | 0.00 | 65 | 1002.3 |
| 20260504181505 | 79 | 145 | 1.7 | 3.5 | 0.00 | 0.00 | 0.00 | 66 | 1002.4 |
| 20260504181406 | 79 | 147 | 1.7 | 3.5 | 0.00 | 0.00 | 0.00 | 66 | 1002.5 |
| 20260504181305 | 79 | 147 | 2.6 | 3.5 | 0.00 | 0.00 | 0.00 | 66 | 1002.3 |
| 20260504181205 | 78 | 151 | 1.7 | 3.5 | 0.00 | 0.00 | 0.00 | 66 | 1002.4 |
| 20260504181105 | 78 | 146 | 0.9 | 3.5 | 0.00 | 0.00 | 0.00 | 66 | 1002.3 |
| 20260504181005 | 78 | 144 | 0.9 | 3.5 | 0.00 | 0.00 | 0.00 | 66 | 1002.3 |
| 20260504180905 | 78 | 136 | 0.9 | 3.5 | 0.00 | 0.00 | 0.00 | 66 | 1002.4 |
| 20260504180805 | 78 | 142 | 0.9 | 3.5 | 0.00 | 0.00 | 0.00 | 66 | 1002.5 |
| 20260504180706 | 78 | 148 | 1.7 | 3.5 | 0.00 | 0.00 | 0.00 | 65 | 1002.5 |
| 20260504180605 | 78 | 146 | 1.7 | 3.5 | 0.00 | 0.00 | 0.00 | 65 | 1002.3 |
| 20260504180505 | 78 | 151 | 0.9 | 3.5 | 0.00 | 0.00 | 0.00 | 65 | 1002.4 |
| 20260504180405 | 78 | 152 | 0.9 | 3.5 | 0.00 | 0.00 | 0.00 | 65 | 1002.5 |
| 20260504180305 | 78 | 152 | 0.9 | 3.5 | 0.00 | 0.00 | 0.00 | 66 | 1002.4 |
| 20260504180205 | 78 | 156 | 0.0 | 3.5 | 0.00 | 0.00 | 0.00 | 66 | 1002.4 |
| 20260504180106 | 78 | 161 | 0.9 | 3.5 | 0.00 | 0.00 | 0.00 | 66 | 1002.4 |
| 20260504180005 | 78 | 165 | 1.7 | 3.5 | 0.00 | 0.00 | 0.00 | 66 | 1002.4 |
| 20260504175905 | 78 | 171 | 1.7 | 3.5 | 0.00 | 0.00 | 0.00 | 66 | 1002.5 |
| 20260504175826 | 78 | 169 | 1.7 | 3.5 | 0.00 | 0.00 | 0.00 | 66 | 1002.5 |
| 20260504175705 | 78 | 162 | 0.9 | 3.5 | 0.00 | 0.00 | 0.00 | 66 | 1002.5 |
| 20260504175606 | 78 | 0 | 0.0 | 3.5 | 0.00 | 0.00 | 0.00 | 67 | 1002.6 |
| 20260504175505 | 78 | 157 | 0.9 | 3.5 | 0.00 | 0.00 | 0.00 | 67 | 1002.6 |
| 20260504175406 | 78 | 153 | 1.7 | 3.5 | 0.00 | 0.00 | 0.00 | 67 | 1002.5 |
| 20260504175305 | 78 | 157 | 1.7 | 3.5 | 0.00 | 0.00 | 0.00 | 66 | 1002.5 |
| 20260504175206 | 78 | 153 | 0.9 | 3.5 | 0.00 | 0.00 | 0.00 | 67 | 1002.5 |
| 20260504175105 | 77 | 148 | 1.7 | 3.5 | 0.00 | 0.00 | 0.00 | 68 | 1002.5 |
| 20260504175005 | 77 | 144 | 0.9 | 3.5 | 0.00 | 0.00 | 0.00 | 68 | 1002.5 |
| 20260504174926 | 77 | 139 | 0.0 | 3.5 | 0.00 | 0.00 | 0.00 | 68 | 1002.5 |
| 20260504174805 | 77 | 141 | 1.7 | 3.5 | 0.00 | 0.00 | 0.00 | 68 | 1002.5 |
| 20260504174705 | 77 | 146 | 1.7 | 3.5 | 0.00 | 0.00 | 0.00 | 68 | 1002.5 |
| 20260504174627 | 77 | 149 | 1.7 | 3.5 | 0.00 | 0.00 | 0.00 | 68 | 1002.5 |
| 20260504174505 | 77 | 152 | 1.7 | 3.5 | 0.00 | 0.00 | 0.00 | 67 | 1002.6 |
| 20260504174405 | 77 | 157 | 1.7 | 3.5 | 0.00 | 0.00 | 0.00 | 67 | 1002.6 |
| 20260504174305 | 76 | 148 | 0.9 | 3.5 | 0.00 | 0.00 | 0.00 | 68 | 1002.6 |
| 20260504174205 | 76 | 0 | 0.0 | 3.5 | 0.00 | 0.00 | 0.00 | 68 | 1002.6 |
| 20260504174105 | 76 | 144 | 0.9 | 3.5 | 0.00 | 0.00 | 0.00 | 68 | 1002.6 |
| 20260504174026 | 76 | 147 | 1.7 | 3.5 | 0.00 | 0.00 | 0.00 | 67 | 1002.7 |
| 20260504173905 | 76 | 151 | 0.9 | 2.6 | 0.00 | 0.00 | 0.00 | 68 | 1002.5 |
| 20260504173805 | 76 | 152 | 0.9 | 2.6 | 0.00 | 0.00 | 0.00 | 68 | 1002.6 |
| 20260504173705 | 76 | 0 | 0.0 | 2.6 | 0.00 | 0.00 | 0.00 | 68 | 1002.5 |
| 20260504173605 | 76 | 0 | 0.0 | 3.5 | 0.00 | 0.00 | 0.00 | 68 | 1002.6 |
| 20260504173506 | 76 | 138 | 0.9 | 3.5 | 0.00 | 0.00 | 0.00 | 68 | 1002.7 |
| 20260504173405 | 76 | 135 | 0.9 | 3.5 | 0.00 | 0.00 | 0.00 | 68 | 1002.5 |
| 20260504173305 | 76 | 140 | 0.9 | 3.5 | 0.00 | 0.00 | 0.00 | 69 | 1002.5 |
| 20260504173227 | 76 | 144 | 0.9 | 3.5 | 0.00 | 0.00 | 0.00 | 69 | 1002.6 |
| 20260504173126 | 76 | 146 | 0.9 | 3.5 | 0.00 | 0.00 | 0.00 | 69 | 1002.7 |
| 20260504173005 | 75 | 0 | 0.0 | 3.5 | 0.00 | 0.00 | 0.00 | 70 | 1002.7 |
| 20260504172926 | 75 | 151 | 0.0 | 3.5 | 0.00 | 0.00 | 0.00 | 69 | 1002.6 |
| 20260504172805 | 75 | 147 | 0.0 | 3.5 | 0.00 | 0.00 | 0.00 | 69 | 1002.6 |
| 20260504172705 | 75 | 152 | 0.9 | 3.5 | 0.00 | 0.00 | 0.00 | 70 | 1002.6 |
| 20260504172605 | 75 | 0 | 0.0 | 3.5 | 0.00 | 0.00 | 0.00 | 70 | 1002.7 |
| 20260504172505 | 75 | 0 | 0.0 | 3.5 | 0.00 | 0.00 | 0.00 | 71 | 1002.7 |
| 20260504172405 | 75 | 159 | 0.9 | 3.5 | 0.00 | 0.00 | 0.00 | 71 | 1002.7 |
| 20260504172305 | 75 | 158 | 2.6 | 3.5 | 0.00 | 0.00 | 0.00 | 70 | 1002.7 |
| 20260504172226 | 75 | 159 | 0.9 | 3.5 | 0.00 | 0.00 | 0.00 | 70 | 1002.7 |
| 20260504172105 | 74 | 153 | 0.9 | 3.5 | 0.00 | 0.00 | 0.00 | 72 | 1002.8 |
| 20260504172005 | 74 | 150 | 0.9 | 3.5 | 0.00 | 0.00 | 0.00 | 72 | 1002.7 |